Observation data for McCamey on 12/08/2018      Previous  Date       Current Mesonet Observations  Soil Data  Daily Summary Page  Observations in Plain Language
KMC4 080600Z 02003KT 03/03 A3024 RMK A01 T00340027  RH  095%=      5-min Rain = 0.01
KMC4 080601Z 01002KT 03/03 A3024 RMK A01 T00340027  RH  095%=      5-min Rain = 0
KMC4 080602Z 36003KT 03/03 A3024 RMK A01 T00340027  RH  095%=      5-min Rain = 0
KMC4 080603Z 36004KT 03/03 A3024 RMK A01 T00330027  RH  095%=      5-min Rain = 0
KMC4 080604Z 00004KT 03/03 A3024 RMK A01 T00330027  RH  096%=      5-min Rain = 0.01
KMC4 080605Z 35003KT 03/03 A3024 RMK A01 T00330027  RH  096%=      5-min Rain = 0
KMC4 080606Z 35004KT 03/03 A3024 RMK A01 T00330027  RH  096%=      5-min Rain = 0
KMC4 080607Z 35003KT 03/03 A3024 RMK A01 T00330027  RH  096%=      5-min Rain = 0
KMC4 080608Z 35003KT 03/03 A3024 RMK A01 T00330027  RH  096%=      5-min Rain = 0
KMC4 080609Z 35003KT 03/03 A3024 RMK A01 T00330027  RH  096%=      5-min Rain = 0
KMC4 080610Z 35004KT 03/03 A3024 RMK A01 T00330027  RH  096%=      5-min Rain = 0.01
KMC4 080611Z 36004KT 03/03 A3024 RMK A01 T00330027  RH  096%=      5-min Rain = 0
KMC4 080612Z 36004KT 03/03 A3024 RMK A01 T00330027  RH  096%=      5-min Rain = 0
KMC4 080613Z 00003KT 03/03 A3024 RMK A01 T00330027  RH  096%=      5-min Rain = 0
KMC4 080614Z 00004KT 03/03 A3023 RMK A01 T00330028  RH  096%=      5-min Rain = 0
KMC4 080615Z 01004KT 03/03 A3023 RMK A01 T00330028  RH  096%=      5-min Rain = 0
KMC4 080616Z 02003KT 03/03 A3023 RMK A01 T00320027  RH  096%=      5-min Rain = 0
KMC4 080617Z 01004KT 03/03 A3023 RMK A01 T00320027  RH  096%=      5-min Rain = 0.01
KMC4 080618Z 02004KT 03/03 A3023 RMK A01 T00330027  RH  096%=      5-min Rain = 0
KMC4 080619Z 01004KT 03/03 A3023 RMK A01 T00330027  RH  096%=      5-min Rain = 0
KMC4 080620Z 01003KT 03/03 A3023 RMK A01 T00320027  RH  096%=      5-min Rain = 0
KMC4 080621Z 01004KT 03/03 A3023 RMK A01 T00320027  RH  096%=      5-min Rain = 0
KMC4 080622Z 02005KT 03/03 A3023 RMK A01 T00330027  RH  096%=      5-min Rain = 0
KMC4 080623Z 01005KT 03/03 A3023 RMK A01 T00330027  RH  096%=      5-min Rain = 0
KMC4 080624Z 02004KT 03/03 A3023 RMK A01 T00320027  RH  096%=      5-min Rain = 0
KMC4 080625Z 01004KT 03/03 A3023 RMK A01 T00320027  RH  096%=      5-min Rain = 0
KMC4 080626Z 01004KT 03/03 A3023 RMK A01 T00320026  RH  096%=      5-min Rain = 0
KMC4 080627Z 01006KT 03/03 A3023 RMK A01 T00330027  RH  096%=      5-min Rain = 0
KMC4 080628Z 01006KT 03/03 A3023 RMK A01 T00330027  RH  096%=      5-min Rain = 0
KMC4 080629Z 02004KT 03/03 A3023 RMK A01 T00320026  RH  096%=      5-min Rain = 0
KMC4 080630Z 02003KT 03/03 A3023 RMK A01 T00330026  RH  096%=      5-min Rain = 0
KMC4 080631Z 01003KT 03/03 A3023 RMK A01 T00330026  RH  096%=      5-min Rain = 0
KMC4 080632Z 01004KT 03/03 A3023 RMK A01 T00330027  RH  096%=      5-min Rain = 0
KMC4 080633Z 01004KT 03/03 A3023 RMK A01 T00330027  RH  096%=      5-min Rain = 0
KMC4 080634Z 00005KT 03/03 A3023 RMK A01 T00330026  RH  096%=      5-min Rain = 0
KMC4 080635Z 01005KT 03/03 A3023 RMK A01 T00330026  RH  095%=      5-min Rain = 0
KMC4 080636Z 01004KT 03/03 A3023 RMK A01 T00330026  RH  095%=      5-min Rain = 0
KMC4 080637Z 02003KT 03/03 A3023 RMK A01 T00330026  RH  095%=      5-min Rain = 0
KMC4 080638Z 02003KT 03/03 A3023 RMK A01 T00330026  RH  095%=      5-min Rain = 0
KMC4 080639Z 03004KT 03/03 A3023 RMK A01 T00330026  RH  095%=      5-min Rain = 0
KMC4 080640Z 02005KT 03/03 A3023 RMK A01 T00340027  RH  095%=      5-min Rain = 0
KMC4 080641Z 02005KT 03/03 A3023 RMK A01 T00330026  RH  095%=      5-min Rain = 0.01
KMC4 080642Z 01005KT 03/03 A3023 RMK A01 T00330026  RH  095%=      5-min Rain = 0
KMC4 080643Z 00007KT 03/03 A3023 RMK A01 T00330026  RH  095%=      5-min Rain = 0
KMC4 080644Z 01005KT 03/02 A3023 RMK A01 T00330024  RH  094%=      5-min Rain = 0
KMC4 080645Z 01006KT 03/02 A3023 RMK A01 T00320024  RH  094%=      5-min Rain = 0
KMC4 080646Z 01007KT 03/02 A3023 RMK A01 T00320024  RH  094%=      5-min Rain = 0
KMC4 080647Z 02006KT 03/02 A3023 RMK A01 T00320023  RH  094%=      5-min Rain = 0
KMC4 080648Z 01006KT 03/02 A3023 RMK A01 T00330023  RH  094%=      5-min Rain = 0
KMC4 080649Z 01006KT 03/02 A3022 RMK A01 T00320023  RH  094%=      5-min Rain = 0
KMC4 080650Z 02008KT 03/02 A3022 RMK A01 T00320023  RH  094%=      5-min Rain = 0
KMC4 080651Z 02008KT 03/02 A3022 RMK A01 T00320022  RH  093%=      5-min Rain = 0
KMC4 080652Z 03007KT 03/02 A3022 RMK A01 T00320022  RH  093%=      5-min Rain = 0
KMC4 080653Z 02005KT 03/02 A3022 RMK A01 T00320023  RH  094%=      5-min Rain = 0
KMC4 080654Z 02007KT 03/02 A3022 RMK A01 T00320023  RH  094%=      5-min Rain = 0
KMC4 080655Z 02006KT 03/02 A3022 RMK A01 T00320023  RH  094%=      5-min Rain = 0
KMC4 080656Z 03004KT 03/02 A3022 RMK A01 T00320023  RH  094%=      5-min Rain = 0
KMC4 080657Z 03005KT 03/02 A3022 RMK A01 T00320023  RH  094%=      5-min Rain = 0
KMC4 080658Z 03006KT 03/02 A3022 RMK A01 T00320023  RH  094%=      5-min Rain = 0
KMC4 080659Z 03007KT 03/02 A3022 RMK A01 T00320024  RH  094%=      5-min Rain = 0.01
KMC4 080700Z 03006KT 03/02 A3022 RMK A01 T00310022  RH  094%=      5-min Rain = 0
KMC4 080701Z 03006KT 03/02 A3022 RMK A01 T00320023  RH  094%=      5-min Rain = 0
KMC4 080702Z 03007KT 03/02 A3022 RMK A01 T00320023  RH  094%=      5-min Rain = 0
KMC4 080703Z 03007KT 03/02 A3022 RMK A01 T00320023  RH  094%=      5-min Rain = 0
KMC4 080704Z 03007KT 03/02 A3022 RMK A01 T00310023  RH  094%=      5-min Rain = 0
KMC4 080705Z 04005KT 03/02 A3022 RMK A01 T00320023  RH  094%=      5-min Rain = 0
KMC4 080706Z 04005KT 03/02 A3022 RMK A01 T00310023  RH  094%=      5-min Rain = 0
KMC4 080707Z 04005KT 03/02 A3021 RMK A01 T00320023  RH  094%=      5-min Rain = 0
KMC4 080708Z 04007KT 03/02 A3021 RMK A01 T00320024  RH  095%=      5-min Rain = 0
KMC4 080709Z 04007KT 03/02 A3021 RMK A01 T00310024  RH  095%=      5-min Rain = 0.01
KMC4 080710Z 04006KT 03/02 A3021 RMK A01 T00310024  RH  095%=      5-min Rain = 0
KMC4 080711Z 04007KT 03/02 A3021 RMK A01 T00310024  RH  095%=      5-min Rain = 0
KMC4 080712Z 05008KT 03/02 A3021 RMK A01 T00310024  RH  095%=      5-min Rain = 0
KMC4 080713Z 05007KT 03/02 A3021 RMK A01 T00310024  RH  095%=      5-min Rain = 0
KMC4 080714Z 04007KT 03/02 A3021 RMK A01 T00320024  RH  095%=      5-min Rain = 0
KMC4 080715Z 05007KT 03/02 A3021 RMK A01 T00320024  RH  095%=      5-min Rain = 0
KMC4 080716Z 05006KT 03/02 A3021 RMK A01 T00320024  RH  095%=      5-min Rain = 0
KMC4 080717Z 04006KT 03/02 A3021 RMK A01 T00320024  RH  095%=      5-min Rain = 0.01
KMC4 080718Z 04006KT 03/02 A3021 RMK A01 T00310024  RH  095%=      5-min Rain = 0
KMC4 080719Z 05004KT 03/02 A3021 RMK A01 T00310024  RH  095%=      5-min Rain = 0
KMC4 080720Z 05007KT 03/03 A3021 RMK A01 T00320025  RH  095%=      5-min Rain = 0
KMC4 080721Z 06009KT 03/02 A3021 RMK A01 T00310024  RH  095%=      5-min Rain = 0.01
KMC4 080722Z 06006KT 03/02 A3021 RMK A01 T00310023  RH  095%=      5-min Rain = 0.01
KMC4 080723Z 05008KT 03/02 A3021 RMK A01 T00310023  RH  095%=      5-min Rain = 0
KMC4 080724Z 05008KT 03/02 A3021 RMK A01 T00310023  RH  095%=      5-min Rain = 0.01
KMC4 080725Z 05007KT 03/02 A3021 RMK A01 T00300022  RH  095%=      5-min Rain = 0
KMC4 080726Z 07005KT 03/02 A3021 RMK A01 T00300022  RH  095%=      5-min Rain = 0
KMC4 080727Z 06007KT 03/02 A3021 RMK A01 T00300023  RH  095%=      5-min Rain = 0.01
KMC4 080728Z 06006KT 03/02 A3021 RMK A01 T00300023  RH  095%=      5-min Rain = 0
KMC4 080729Z 05008KT 03/02 A3021 RMK A01 T00300023  RH  095%=      5-min Rain = 0.01
KMC4 080730Z 06005KT 03/02 A3021 RMK A01 T00300023  RH  095%=      5-min Rain = 0
KMC4 080731Z 05005KT 03/02 A3021 RMK A01 T00300023  RH  095%=      5-min Rain = 0
KMC4 080732Z 07005KT 03/02 A3021 RMK A01 T00300023  RH  095%=      5-min Rain = 0.01
KMC4 080733Z 07006KT 03/02 A3021 RMK A01 T00300023  RH  095%=      5-min Rain = 0
KMC4 080734Z 07005KT 03/02 A3021 RMK A01 T00300023  RH  095%=      5-min Rain = 0
KMC4 080735Z 07006KT 03/02 A3021 RMK A01 T00300023  RH  095%=      5-min Rain = 0
KMC4 080736Z 07005KT 03/02 A3021 RMK A01 T00300023  RH  095%=      5-min Rain = 0.01
KMC4 080737Z 07006KT 03/02 A3021 RMK A01 T00300023  RH  095%=      5-min Rain = 0
KMC4 080738Z 08007KT 03/02 A3021 RMK A01 T00300023  RH  095%=      5-min Rain = 0
KMC4 080739Z 08006KT 03/02 A3021 RMK A01 T00300023  RH  095%=      5-min Rain = 0.01
KMC4 080740Z 06004KT 03/02 A3021 RMK A01 T00300023  RH  095%=      5-min Rain = 0
KMC4 080741Z 07004KT 03/02 A3021 RMK A01 T00300023  RH  095%=      5-min Rain = 0.01
KMC4 080742Z 06004KT 03/02 A3021 RMK A01 T00300023  RH  095%=      5-min Rain = 0
KMC4 080743Z 06005KT 03/02 A3021 RMK A01 T00300023  RH  095%=      5-min Rain = 0
KMC4 080744Z 06004KT 03/02 A3021 RMK A01 T00300023  RH  095%=      5-min Rain = 0.01
KMC4 080745Z 06007KT 03/02 A3021 RMK A01 T00300023  RH  095%=      5-min Rain = 0
KMC4 080746Z 07005KT 03/02 A3021 RMK A01 T00290022  RH  095%=      5-min Rain = 0
KMC4 080747Z 06005KT 03/02 A3021 RMK A01 T00290022  RH  095%=      5-min Rain = 0.01
KMC4 080748Z 05004KT 03/02 A3021 RMK A01 T00290022  RH  095%=      5-min Rain = 0
KMC4 080749Z 04004KT 03/02 A3022 RMK A01 T00290022  RH  095%=      5-min Rain = 0
KMC4 080750Z 04003KT 03/02 A3022 RMK A01 T00290023  RH  095%=      5-min Rain = 0.01
KMC4 080751Z 05005KT 03/02 A3022 RMK A01 T00290022  RH  095%=      5-min Rain = 0
KMC4 080752Z 05004KT 03/02 A3022 RMK A01 T00290023  RH  095%=      5-min Rain = 0
KMC4 080753Z 04004KT 03/02 A3022 RMK A01 T00290023  RH  095%=      5-min Rain = 0
KMC4 080754Z 03003KT 03/02 A3022 RMK A01 T00290023  RH  095%=      5-min Rain = 0
KMC4 080755Z 02003KT 03/02 A3022 RMK A01 T00290023  RH  095%=      5-min Rain = 0.01
KMC4 080756Z 36003KT 03/02 A3022 RMK A01 T00300023  RH  096%=      5-min Rain = 0
KMC4 080757Z 00003KT 03/02 A3022 RMK A01 T00300023  RH  096%=      5-min Rain = 0
KMC4 080758Z 35005KT 03/02 A3022 RMK A01 T00290023  RH  096%=      5-min Rain = 0
KMC4 080759Z 00005KT 03/02 A3022 RMK A01 T00290023  RH  096%=      5-min Rain = 0
KMC4 080800Z 00003KT 03/02 A3022 RMK A01 T00290023  RH  096%=      5-min Rain = 0
KMC4 080801Z 02003KT 03/02 A3022 RMK A01 T00300023  RH  096%=      5-min Rain = 0.01
KMC4 080802Z 00003KT 03/02 A3022 RMK A01 T00300023  RH  095%=      5-min Rain = 0
KMC4 080803Z 01003KT 03/02 A3022 RMK A01 T00300023  RH  095%=      5-min Rain = 0
KMC4 080804Z 35003KT 03/02 A3022 RMK A01 T00300023  RH  095%=      5-min Rain = 0
KMC4 080805Z 01002KT 03/02 A3022 RMK A01 T00300023  RH  095%=      5-min Rain = 0
KMC4 080806Z 33001KT 03/02 A3022 RMK A01 T00300022  RH  095%=      5-min Rain = 0
KMC4 080807Z 32002KT 03/02 A3022 RMK A01 T00300023  RH  095%=      5-min Rain = 0
KMC4 080808Z 32002KT 03/02 A3022 RMK A01 T00300023  RH  095%=      5-min Rain = 0
KMC4 080809Z 31002KT 03/02 A3022 RMK A01 T00300023  RH  095%=      5-min Rain = 0
KMC4 080810Z 31002KT 03/02 A3022 RMK A01 T00300024  RH  095%=      5-min Rain = 0
KMC4 080811Z 32003KT 03/02 A3022 RMK A01 T00300023  RH  095%=      5-min Rain = 0
KMC4 080812Z 34003KT 03/02 A3022 RMK A01 T00310024  RH  095%=      5-min Rain = 0
KMC4 080813Z 34002KT 03/02 A3022 RMK A01 T00300023  RH  095%=      5-min Rain = 0
KMC4 080814Z 00002KT 03/02 A3022 RMK A01 T00300023  RH  095%=      5-min Rain = 0
KMC4 080815Z 04001KT 03/02 A3022 RMK A01 T00300023  RH  095%=      5-min Rain = 0
KMC4 080816Z 03001KT 03/02 A3022 RMK A01 T00310024  RH  095%=      5-min Rain = 0
KMC4 080817Z 02001KT 03/02 A3022 RMK A01 T00310024  RH  095%=      5-min Rain = 0.01
KMC4 080818Z 01003KT 03/02 A3022 RMK A01 T00310023  RH  095%=      5-min Rain = 0
KMC4 080819Z 02003KT 03/02 A3022 RMK A01 T00300022  RH  095%=      5-min Rain = 0
KMC4 080820Z 02004KT 03/02 A3022 RMK A01 T00300022  RH  094%=      5-min Rain = 0
KMC4 080821Z 03004KT 03/02 A3022 RMK A01 T00300022  RH  094%=      5-min Rain = 0
KMC4 080822Z 02004KT 03/02 A3022 RMK A01 T00300021  RH  094%=      5-min Rain = 0
KMC4 080823Z 03003KT 03/02 A3022 RMK A01 T00300021  RH  094%=      5-min Rain = 0
KMC4 080824Z 04003KT 03/02 A3022 RMK A01 T00300021  RH  094%=      5-min Rain = 0
KMC4 080825Z 02002KT 03/02 A3022 RMK A01 T00300021  RH  094%=      5-min Rain = 0
KMC4 080826Z 03002KT 03/02 A3022 RMK A01 T00300020  RH  093%=      5-min Rain = 0
KMC4 080827Z 05003KT 03/02 A3022 RMK A01 T00300020  RH  093%=      5-min Rain = 0
KMC4 080828Z 05004KT 03/02 A3022 RMK A01 T00300020  RH  093%=      5-min Rain = 0
KMC4 080829Z 04004KT 03/02 A3022 RMK A01 T00300020  RH  093%=      5-min Rain = 0
KMC4 080830Z 04003KT 03/02 A3022 RMK A01 T00300019  RH  093%=      5-min Rain = 0
KMC4 080831Z 05003KT 03/02 A3022 RMK A01 T00300019  RH  093%=      5-min Rain = 0
KMC4 080832Z 05003KT 03/02 A3022 RMK A01 T00300020  RH  093%=      5-min Rain = 0
KMC4 080833Z 06002KT 03/02 A3022 RMK A01 T00300020  RH  093%=      5-min Rain = 0
KMC4 080834Z 05003KT 03/02 A3022 RMK A01 T00300020  RH  093%=      5-min Rain = 0
KMC4 080835Z 05003KT 03/02 A3022 RMK A01 T00300020  RH  093%=      5-min Rain = 0
KMC4 080836Z 04002KT 03/02 A3022 RMK A01 T00300020  RH  093%=      5-min Rain = 0
KMC4 080837Z 05001KT 03/02 A3022 RMK A01 T00300020  RH  093%=      5-min Rain = 0
KMC4 080838Z 05001KT 03/02 A3022 RMK A01 T00300020  RH  093%=      5-min Rain = 0
KMC4 080839Z 03002KT 03/02 A3022 RMK A01 T00300020  RH  093%=      5-min Rain = 0
KMC4 080840Z 03001KT 03/02 A3022 RMK A01 T00300020  RH  093%=      5-min Rain = 0
KMC4 080841Z 03001KT 03/02 A3022 RMK A01 T00300020  RH  093%=      5-min Rain = 0
KMC4 080842Z 02001KT 03/02 A3022 RMK A01 T00300020  RH  093%=      5-min Rain = 0
KMC4 080843Z 02002KT 03/02 A3022 RMK A01 T00300020  RH  093%=      5-min Rain = 0
KMC4 080844Z 01002KT 03/02 A3022 RMK A01 T00310021  RH  093%=      5-min Rain = 0
KMC4 080845Z 02002KT 03/02 A3022 RMK A01 T00310021  RH  093%=      5-min Rain = 0
KMC4 080846Z 01001KT 03/02 A3022 RMK A01 T00310021  RH  093%=      5-min Rain = 0
KMC4 080847Z 01002KT 03/02 A3023 RMK A01 T00300020  RH  093%=      5-min Rain = 0
KMC4 080848Z 01002KT 03/02 A3023 RMK A01 T00310020  RH  093%=      5-min Rain = 0
KMC4 080849Z 01002KT 03/02 A3023 RMK A01 T00310020  RH  092%=      5-min Rain = 0
KMC4 080850Z 35002KT 03/02 A3023 RMK A01 T00310020  RH  092%=      5-min Rain = 0
KMC4 080851Z 35003KT 03/02 A3023 RMK A01 T00310020  RH  093%=      5-min Rain = 0
KMC4 080852Z 34003KT 03/02 A3023 RMK A01 T00310021  RH  093%=      5-min Rain = 0
KMC4 080853Z 33002KT 03/02 A3023 RMK A01 T00320021  RH  093%=      5-min Rain = 0
KMC4 080854Z 34002KT 03/02 A3023 RMK A01 T00320021  RH  093%=      5-min Rain = 0
KMC4 080855Z 33002KT 03/02 A3023 RMK A01 T00320021  RH  093%=      5-min Rain = 0
KMC4 080856Z 32002KT 03/02 A3023 RMK A01 T00320021  RH  093%=      5-min Rain = 0
KMC4 080857Z 31002KT 03/02 A3023 RMK A01 T00320021  RH  093%=      5-min Rain = 0
KMC4 080858Z 32002KT 03/02 A3023 RMK A01 T00320022  RH  093%=      5-min Rain = 0
KMC4 080859Z 31002KT 03/02 A3023 RMK A01 T00320022  RH  093%=      5-min Rain = 0
KMC4 080900Z 31001KT 03/02 A3023 RMK A01 T00320022  RH  094%=      5-min Rain = 0
KMC4 080901Z 33002KT 03/02 A3023 RMK A01 T00320022  RH  094%=      5-min Rain = 0
KMC4 080902Z 33002KT 03/02 A3023 RMK A01 T00320022  RH  094%=      5-min Rain = 0
KMC4 080903Z 32002KT 03/02 A3023 RMK A01 T00320023  RH  094%=      5-min Rain = 0
KMC4 080904Z 32002KT 03/02 A3023 RMK A01 T00320023  RH  094%=      5-min Rain = 0
KMC4 080905Z 32002KT 03/02 A3023 RMK A01 T00320023  RH  094%=      5-min Rain = 0
KMC4 080906Z 32003KT 03/02 A3023 RMK A01 T00320023  RH  094%=      5-min Rain = 0
KMC4 080907Z 31003KT 03/02 A3023 RMK A01 T00310023  RH  094%=      5-min Rain = 0
KMC4 080908Z 33002KT 03/02 A3023 RMK A01 T00320023  RH  094%=      5-min Rain = 0
KMC4 080909Z 35004KT 03/02 A3023 RMK A01 T00320023  RH  094%=      5-min Rain = 0
KMC4 080910Z 34005KT 03/02 A3023 RMK A01 T00320023  RH  094%=      5-min Rain = 0
KMC4 080911Z 35005KT 03/02 A3023 RMK A01 T00320022  RH  093%=      5-min Rain = 0
KMC4 080912Z 35004KT 03/02 A3023 RMK A01 T00320021  RH  093%=      5-min Rain = 0
KMC4 080913Z 35004KT 03/02 A3023 RMK A01 T00320020  RH  092%=      5-min Rain = 0
KMC4 080914Z 34004KT 03/02 A3023 RMK A01 T00320020  RH  092%=      5-min Rain = 0
KMC4 080915Z 34004KT 03/02 A3023 RMK A01 T00320020  RH  092%=      5-min Rain = 0
KMC4 080916Z 34005KT 03/02 A3023 RMK A01 T00320020  RH  092%=      5-min Rain = 0.01
KMC4 080917Z 34005KT 03/02 A3023 RMK A01 T00320021  RH  092%=      5-min Rain = 0
KMC4 080918Z 34005KT 03/02 A3023 RMK A01 T00320021  RH  092%=      5-min Rain = 0
KMC4 080919Z 35005KT 03/02 A3023 RMK A01 T00320021  RH  092%=      5-min Rain = 0
KMC4 080920Z 35006KT 03/02 A3023 RMK A01 T00320021  RH  093%=      5-min Rain = 0
KMC4 080921Z 35005KT 03/02 A3023 RMK A01 T00320021  RH  092%=      5-min Rain = 0
KMC4 080922Z 35006KT 03/02 A3023 RMK A01 T00320020  RH  092%=      5-min Rain = 0
KMC4 080923Z 35006KT 03/02 A3023 RMK A01 T00310020  RH  092%=      5-min Rain = 0
KMC4 080924Z 35005KT 03/02 A3023 RMK A01 T00310019  RH  092%=      5-min Rain = 0
KMC4 080925Z 34004KT 03/02 A3023 RMK A01 T00310020  RH  092%=      5-min Rain = 0
KMC4 080926Z 34004KT 03/02 A3023 RMK A01 T00310020  RH  092%=      5-min Rain = 0
KMC4 080927Z 34005KT 03/02 A3023 RMK A01 T00310020  RH  093%=      5-min Rain = 0
KMC4 080928Z 34005KT 03/02 A3023 RMK A01 T00310020  RH  093%=      5-min Rain = 0.01
KMC4 080929Z 35004KT 03/02 A3023 RMK A01 T00310020  RH  093%=      5-min Rain = 0
KMC4 080930Z 34003KT 03/02 A3023 RMK A01 T00310021  RH  093%=      5-min Rain = 0
KMC4 080931Z 35004KT 03/02 A3023 RMK A01 T00310021  RH  093%=      5-min Rain = 0
KMC4 080932Z 35004KT 03/02 A3023 RMK A01 T00320021  RH  093%=      5-min Rain = 0
KMC4 080933Z 34003KT 03/02 A3023 RMK A01 T00310021  RH  093%=      5-min Rain = 0
KMC4 080934Z 35004KT 03/02 A3023 RMK A01 T00320021  RH  093%=      5-min Rain = 0
KMC4 080935Z 35003KT 03/02 A3023 RMK A01 T00320021  RH  093%=      5-min Rain = 0
KMC4 080936Z 34004KT 03/02 A3023 RMK A01 T00320021  RH  093%=      5-min Rain = 0
KMC4 080937Z 34004KT 03/02 A3023 RMK A01 T00320021  RH  093%=      5-min Rain = 0
KMC4 080938Z 34003KT 03/02 A3023 RMK A01 T00320021  RH  093%=      5-min Rain = 0
KMC4 080939Z 35003KT 03/02 A3023 RMK A01 T00320021  RH  093%=      5-min Rain = 0
KMC4 080940Z 00003KT 03/02 A3023 RMK A01 T00320021  RH  093%=      5-min Rain = 0
KMC4 080941Z 01003KT 03/02 A3023 RMK A01 T00320021  RH  093%=      5-min Rain = 0
KMC4 080942Z 00003KT 03/02 A3023 RMK A01 T00310021  RH  093%=      5-min Rain = 0
KMC4 080943Z 00004KT 03/02 A3023 RMK A01 T00320020  RH  092%=      5-min Rain = 0
KMC4 080944Z 00005KT 03/02 A3023 RMK A01 T00320020  RH  092%=      5-min Rain = 0
KMC4 080945Z 00004KT 03/02 A3023 RMK A01 T00320019  RH  092%=      5-min Rain = 0
KMC4 080946Z 35003KT 03/02 A3023 RMK A01 T00320019  RH  091%=      5-min Rain = 0
KMC4 080947Z 35003KT 03/02 A3023 RMK A01 T00320020  RH  092%=      5-min Rain = 0
KMC4 080948Z 35003KT 03/02 A3023 RMK A01 T00320020  RH  092%=      5-min Rain = 0
KMC4 080949Z 35003KT 03/02 A3023 RMK A01 T00320020  RH  092%=      5-min Rain = 0
KMC4 080950Z 35003KT 03/02 A3023 RMK A01 T00320021  RH  092%=      5-min Rain = 0
KMC4 080951Z 34004KT 03/02 A3023 RMK A01 T00320022  RH  093%=      5-min Rain = 0
KMC4 080952Z 34003KT 03/02 A3023 RMK A01 T00320022  RH  093%=      5-min Rain = 0
KMC4 080953Z 34002KT 03/02 A3022 RMK A01 T00320022  RH  093%=      5-min Rain = 0.01
KMC4 080954Z 35003KT 03/02 A3022 RMK A01 T00320023  RH  094%=      5-min Rain = 0
KMC4 080955Z 35004KT 03/02 A3022 RMK A01 T00320023  RH  094%=      5-min Rain = 0
KMC4 080956Z 35004KT 03/02 A3022 RMK A01 T00320023  RH  094%=      5-min Rain = 0
KMC4 080957Z 35004KT 03/02 A3022 RMK A01 T00320022  RH  094%=      5-min Rain = 0
KMC4 080958Z 33003KT 03/02 A3022 RMK A01 T00320023  RH  094%=      5-min Rain = 0
KMC4 080959Z 34004KT 03/02 A3022 RMK A01 T00320023  RH  094%=      5-min Rain = 0
KMC4 081000Z 34006KT 03/02 A3022 RMK A01 T00320023  RH  094%=      5-min Rain = 0
KMC4 081001Z 35006KT 03/02 A3022 RMK A01 T00310021  RH  093%=      5-min Rain = 0
KMC4 081002Z 35005KT 03/02 A3022 RMK A01 T00310020  RH  093%=      5-min Rain = 0
KMC4 081003Z 35005KT 03/02 A3022 RMK A01 T00310020  RH  092%=      5-min Rain = 0
KMC4 081004Z 35004KT 03/02 A3022 RMK A01 T00310019  RH  092%=      5-min Rain = 0
KMC4 081005Z 35005KT 03/02 A3022 RMK A01 T00310019  RH  092%=      5-min Rain = 0
KMC4 081006Z 35006KT 03/02 A3022 RMK A01 T00310019  RH  092%=      5-min Rain = 0
KMC4 081007Z 35006KT 03/02 A3022 RMK A01 T00300018  RH  091%=      5-min Rain = 0
KMC4 081008Z 35005KT 03/02 A3022 RMK A01 T00300017  RH  091%=      5-min Rain = 0
KMC4 081009Z 34004KT 03/02 A3022 RMK A01 T00300017  RH  091%=      5-min Rain = 0
KMC4 081010Z 35004KT 03/02 A3022 RMK A01 T00300018  RH  091%=      5-min Rain = 0
KMC4 081011Z 35004KT 03/02 A3022 RMK A01 T00300018  RH  092%=      5-min Rain = 0
KMC4 081012Z 35004KT 03/02 A3022 RMK A01 T00300018  RH  091%=      5-min Rain = 0
KMC4 081013Z 35005KT 03/02 A3022 RMK A01 T00300017  RH  091%=      5-min Rain = 0
KMC4 081014Z 35004KT 03/02 A3022 RMK A01 T00300017  RH  091%=      5-min Rain = 0
KMC4 081015Z 35004KT 03/02 A3022 RMK A01 T00300018  RH  091%=      5-min Rain = 0
KMC4 081016Z 36005KT 03/02 A3022 RMK A01 T00300018  RH  092%=      5-min Rain = 0
KMC4 081017Z 35004KT 03/02 A3022 RMK A01 T00300018  RH  091%=      5-min Rain = 0
KMC4 081018Z 36003KT 03/02 A3022 RMK A01 T00300018  RH  091%=      5-min Rain = 0
KMC4 081019Z 00005KT 03/02 A3022 RMK A01 T00300018  RH  092%=      5-min Rain = 0
KMC4 081020Z 35004KT 03/02 A3022 RMK A01 T00300017  RH  091%=      5-min Rain = 0
KMC4 081021Z 00005KT 03/02 A3022 RMK A01 T00300017  RH  091%=      5-min Rain = 0
KMC4 081022Z 00004KT 03/02 A3022 RMK A01 T00300017  RH  091%=      5-min Rain = 0
KMC4 081023Z 36004KT 03/02 A3022 RMK A01 T00300017  RH  091%=      5-min Rain = 0
KMC4 081024Z 36004KT 03/02 A3023 RMK A01 T00300017  RH  091%=      5-min Rain = 0
KMC4 081025Z 01004KT 03/02 A3023 RMK A01 T00300017  RH  091%=      5-min Rain = 0
KMC4 081026Z 02004KT 03/02 A3023 RMK A01 T00300016  RH  091%=      5-min Rain = 0
KMC4 081027Z 02005KT 03/02 A3023 RMK A01 T00300017  RH  091%=      5-min Rain = 0
KMC4 081028Z 02004KT 03/02 A3023 RMK A01 T00300017  RH  091%=      5-min Rain = 0
KMC4 081029Z 01003KT 03/02 A3023 RMK A01 T00300016  RH  091%=      5-min Rain = 0
KMC4 081030Z 35004KT 03/02 A3023 RMK A01 T00300017  RH  091%=      5-min Rain = 0
KMC4 081031Z 01003KT 03/02 A3023 RMK A01 T00300016  RH  091%=      5-min Rain = 0
KMC4 081032Z 01004KT 03/02 A3023 RMK A01 T00300016  RH  090%=      5-min Rain = 0
KMC4 081033Z 36003KT 03/02 A3023 RMK A01 T00300016  RH  091%=      5-min Rain = 0
KMC4 081034Z 36003KT 03/02 A3023 RMK A01 T00300017  RH  091%=      5-min Rain = 0
KMC4 081035Z 00004KT 03/02 A3022 RMK A01 T00300017  RH  091%=      5-min Rain = 0
KMC4 081036Z 00003KT 03/02 A3022 RMK A01 T00300016  RH  091%=      5-min Rain = 0
KMC4 081037Z 00003KT 03/02 A3022 RMK A01 T00300016  RH  090%=      5-min Rain = 0
KMC4 081038Z 36003KT 03/02 A3022 RMK A01 T00300016  RH  091%=      5-min Rain = 0
KMC4 081039Z 36003KT 03/02 A3022 RMK A01 T00300016  RH  091%=      5-min Rain = 0.01
KMC4 081040Z 34002KT 03/02 A3022 RMK A01 T00300016  RH  091%=      5-min Rain = 0
KMC4 081041Z 34002KT 03/02 A3022 RMK A01 T00300017  RH  091%=      5-min Rain = 0
KMC4 081042Z 33002KT 03/02 A3022 RMK A01 T00300017  RH  092%=      5-min Rain = 0
KMC4 081043Z 34002KT 03/02 A3023 RMK A01 T00300018  RH  092%=      5-min Rain = 0
KMC4 081044Z 33003KT 03/02 A3023 RMK A01 T00300019  RH  092%=      5-min Rain = 0
KMC4 081045Z 32004KT 03/02 A3023 RMK A01 T00300019  RH  092%=      5-min Rain = 0
KMC4 081046Z 32004KT 03/02 A3023 RMK A01 T00300019  RH  092%=      5-min Rain = 0
KMC4 081047Z 32003KT 03/02 A3023 RMK A01 T00300019  RH  092%=      5-min Rain = 0
KMC4 081048Z 32004KT 03/02 A3023 RMK A01 T00300019  RH  093%=      5-min Rain = 0
KMC4 081049Z 32004KT 03/02 A3023 RMK A01 T00300019  RH  093%=      5-min Rain = 0
KMC4 081050Z 32004KT 03/02 A3023 RMK A01 T00300020  RH  093%=      5-min Rain = 0
KMC4 081051Z 32004KT 03/02 A3023 RMK A01 T00300020  RH  093%=      5-min Rain = 0
KMC4 081052Z 32003KT 03/02 A3023 RMK A01 T00300020  RH  093%=      5-min Rain = 0
KMC4 081053Z 32003KT 03/02 A3023 RMK A01 T00300020  RH  093%=      5-min Rain = 0
KMC4 081054Z 31004KT 03/02 A3023 RMK A01 T00300021  RH  093%=      5-min Rain = 0
KMC4 081055Z 32003KT 03/02 A3023 RMK A01 T00300021  RH  094%=      5-min Rain = 0
KMC4 081056Z 31004KT 03/02 A3023 RMK A01 T00300021  RH  094%=      5-min Rain = 0
KMC4 081057Z 32005KT 03/02 A3023 RMK A01 T00300022  RH  094%=      5-min Rain = 0
KMC4 081058Z 33006KT 03/02 A3023 RMK A01 T00300022  RH  094%=      5-min Rain = 0
KMC4 081059Z 33006KT 03/02 A3023 RMK A01 T00300022  RH  094%=      5-min Rain = 0
KMC4 081100Z 33007KT 03/02 A3023 RMK A01 T00300021  RH  094%=      5-min Rain = 0
KMC4 081101Z 34006KT 03/02 A3022 RMK A01 T00300020  RH  093%=      5-min Rain = 0
KMC4 081102Z 34005KT 03/02 A3023 RMK A01 T00300018  RH  092%=      5-min Rain = 0
KMC4 081103Z 32005KT 03/02 A3023 RMK A01 T00300018  RH  092%=      5-min Rain = 0
KMC4 081104Z 32006KT 03/02 A3023 RMK A01 T00300019  RH  092%=      5-min Rain = 0
KMC4 081105Z 33005KT 03/02 A3023 RMK A01 T00300019  RH  092%=      5-min Rain = 0
KMC4 081106Z 33004KT 03/02 A3023 RMK A01 T00300019  RH  092%=      5-min Rain = 0
KMC4 081107Z 33005KT 03/02 A3023 RMK A01 T00300019  RH  092%=      5-min Rain = 0
KMC4 081108Z 33005KT 03/02 A3023 RMK A01 T00300019  RH  092%=      5-min Rain = 0
KMC4 081109Z 34006KT 03/02 A3023 RMK A01 T00300019  RH  092%=      5-min Rain = 0
KMC4 081110Z 35004KT 03/02 A3023 RMK A01 T00300019  RH  092%=      5-min Rain = 0
KMC4 081111Z 35006KT 03/02 A3023 RMK A01 T00300019  RH  092%=      5-min Rain = 0
KMC4 081112Z 34005KT 03/02 A3023 RMK A01 T00300018  RH  091%=      5-min Rain = 0
KMC4 081113Z 36006KT 03/02 A3023 RMK A01 T00300017  RH  091%=      5-min Rain = 0
KMC4 081114Z 35006KT 03/02 A3023 RMK A01 T00300017  RH  091%=      5-min Rain = 0
KMC4 081115Z 34006KT 03/02 A3023 RMK A01 T00300016  RH  091%=      5-min Rain = 0
KMC4 081116Z 00006KT 03/02 A3023 RMK A01 T00300016  RH  090%=      5-min Rain = 0
KMC4 081117Z 00006KT 03/02 A3023 RMK A01 T00300016  RH  091%=      5-min Rain = 0
KMC4 081118Z 35004KT 03/02 A3023 RMK A01 T00300016  RH  091%=      5-min Rain = 0
KMC4 081119Z 34003KT 03/02 A3023 RMK A01 T00300016  RH  091%=      5-min Rain = 0
KMC4 081120Z 34003KT 03/02 A3023 RMK A01 T00300016  RH  091%=      5-min Rain = 0
KMC4 081121Z 35004KT 03/02 A3023 RMK A01 T00300017  RH  091%=      5-min Rain = 0
KMC4 081122Z 34003KT 03/02 A3023 RMK A01 T00300017  RH  091%=      5-min Rain = 0
KMC4 081123Z 34002KT 03/02 A3023 RMK A01 T00300017  RH  092%=      5-min Rain = 0
KMC4 081124Z 35003KT 03/02 A3023 RMK A01 T00300017  RH  092%=      5-min Rain = 0
KMC4 081125Z 35003KT 03/02 A3023 RMK A01 T00300017  RH  092%=      5-min Rain = 0
KMC4 081126Z 34004KT 03/02 A3023 RMK A01 T00300018  RH  092%=      5-min Rain = 0
KMC4 081127Z 35004KT 03/02 A3023 RMK A01 T00300018  RH  092%=      5-min Rain = 0
KMC4 081128Z 35003KT 03/02 A3024 RMK A01 T00300018  RH  092%=      5-min Rain = 0
KMC4 081129Z 34004KT 03/02 A3024 RMK A01 T00300019  RH  092%=      5-min Rain = 0
KMC4 081130Z 35005KT 03/02 A3024 RMK A01 T00300018  RH  092%=      5-min Rain = 0
KMC4 081131Z 35004KT 03/02 A3024 RMK A01 T00300018  RH  092%=      5-min Rain = 0
KMC4 081132Z 36004KT 03/02 A3024 RMK A01 T00300018  RH  092%=      5-min Rain = 0
KMC4 081133Z 00003KT 03/02 A3024 RMK A01 T00300017  RH  091%=      5-min Rain = 0
KMC4 081134Z 35004KT 03/02 A3024 RMK A01 T00300017  RH  091%=      5-min Rain = 0
KMC4 081135Z 34004KT 03/02 A3024 RMK A01 T00300017  RH  091%=      5-min Rain = 0.01
KMC4 081136Z 35003KT 03/02 A3024 RMK A01 T00300017  RH  091%=      5-min Rain = 0
KMC4 081137Z 34003KT 03/02 A3024 RMK A01 T00300017  RH  091%=      5-min Rain = 0
KMC4 081138Z 34003KT 03/02 A3024 RMK A01 T00300018  RH  092%=      5-min Rain = 0
KMC4 081139Z 34003KT 03/02 A3024 RMK A01 T00300018  RH  092%=      5-min Rain = 0
KMC4 081140Z 35003KT 03/02 A3024 RMK A01 T00300018  RH  092%=      5-min Rain = 0
KMC4 081141Z 35004KT 03/02 A3024 RMK A01 T00300018  RH  092%=      5-min Rain = 0
KMC4 081142Z 35003KT 03/02 A3024 RMK A01 T00300018  RH  092%=      5-min Rain = 0
KMC4 081143Z 34003KT 03/02 A3024 RMK A01 T00290017  RH  091%=      5-min Rain = 0
KMC4 081144Z 35004KT 03/02 A3024 RMK A01 T00290017  RH  091%=      5-min Rain = 0
KMC4 081145Z 35003KT 03/02 A3024 RMK A01 T00290017  RH  091%=      5-min Rain = 0
KMC4 081146Z 00003KT 03/02 A3024 RMK A01 T00290017  RH  092%=      5-min Rain = 0
KMC4 081147Z 01003KT 03/02 A3024 RMK A01 T00290017  RH  092%=      5-min Rain = 0
KMC4 081148Z 35003KT 03/02 A3024 RMK A01 T00290017  RH  092%=      5-min Rain = 0
KMC4 081149Z 36003KT 03/02 A3024 RMK A01 T00290018  RH  092%=      5-min Rain = 0
KMC4 081150Z 35003KT 03/02 A3024 RMK A01 T00300018  RH  092%=      5-min Rain = 0
KMC4 081151Z 34003KT 03/02 A3024 RMK A01 T00300018  RH  092%=      5-min Rain = 0
KMC4 081152Z 35004KT 03/02 A3024 RMK A01 T00300017  RH  092%=      5-min Rain = 0
KMC4 081153Z 35003KT 03/02 A3024 RMK A01 T00300017  RH  092%=      5-min Rain = 0
KMC4 081154Z 34006KT 03/02 A3024 RMK A01 T00300017  RH  092%=      5-min Rain = 0
KMC4 081155Z 34005KT 03/02 A3024 RMK A01 T00300017  RH  091%=      5-min Rain = 0
KMC4 081156Z 34004KT 03/02 A3024 RMK A01 T00300017  RH  091%=      5-min Rain = 0
KMC4 081157Z 34005KT 03/02 A3024 RMK A01 T00300017  RH  092%=      5-min Rain = 0
KMC4 081158Z 34005KT 03/02 A3024 RMK A01 T00300017  RH  092%=      5-min Rain = 0
KMC4 081159Z 34005KT 03/02 A3025 RMK A01 T00300017  RH  092%=      5-min Rain = 0.01
KMC4 081200Z 33005KT 03/02 A3025 RMK A01 T00300018  RH  092%=      5-min Rain = 0
KMC4 081201Z 34004KT 03/02 A3025 RMK A01 T00300017  RH  092%=      5-min Rain = 0
KMC4 081202Z 34006KT 03/02 A3025 RMK A01 T00300018  RH  092%=      5-min Rain = 0
KMC4 081203Z 34007KT 03/02 A3025 RMK A01 T00300018  RH  092%=      5-min Rain = 0
KMC4 081204Z 34006KT 03/02 A3025 RMK A01 T00290017  RH  092%=      5-min Rain = 0
KMC4 081205Z 33006KT 03/02 A3025 RMK A01 T00290017  RH  092%=      5-min Rain = 0
KMC4 081206Z 33006KT 03/02 A3025 RMK A01 T00290017  RH  092%=      5-min Rain = 0
KMC4 081207Z 34006KT 03/02 A3025 RMK A01 T00290018  RH  092%=      5-min Rain = 0
KMC4 081208Z 33005KT 03/02 A3025 RMK A01 T00290018  RH  092%=      5-min Rain = 0
KMC4 081209Z 33005KT 03/02 A3025 RMK A01 T00290018  RH  092%=      5-min Rain = 0
KMC4 081210Z 33006KT 03/02 A3025 RMK A01 T00290018  RH  092%=      5-min Rain = 0
KMC4 081211Z 33005KT 03/02 A3025 RMK A01 T00290018  RH  092%=      5-min Rain = 0
KMC4 081212Z 34004KT 03/02 A3025 RMK A01 T00290019  RH  093%=      5-min Rain = 0.01
KMC4 081213Z 32003KT 03/02 A3025 RMK A01 T00290018  RH  093%=      5-min Rain = 0
KMC4 081214Z 32004KT 03/02 A3025 RMK A01 T00290019  RH  093%=      5-min Rain = 0
KMC4 081215Z 32005KT 03/02 A3025 RMK A01 T00290019  RH  093%=      5-min Rain = 0
KMC4 081216Z 32006KT 03/02 A3025 RMK A01 T00290019  RH  093%=      5-min Rain = 0
KMC4 081217Z 33006KT 03/02 A3025 RMK A01 T00290019  RH  093%=      5-min Rain = 0
KMC4 081218Z 32005KT 03/02 A3026 RMK A01 T00290019  RH  093%=      5-min Rain = 0
KMC4 081219Z 32005KT 03/02 A3026 RMK A01 T00290019  RH  093%=      5-min Rain = 0
KMC4 081220Z 32004KT 03/02 A3026 RMK A01 T00290019  RH  093%=      5-min Rain = 0
KMC4 081221Z 33006KT 03/02 A3026 RMK A01 T00290019  RH  093%=      5-min Rain = 0
KMC4 081222Z 33005KT 03/02 A3026 RMK A01 T00290019  RH  093%=      5-min Rain = 0
KMC4 081223Z 34004KT 03/02 A3026 RMK A01 T00290019  RH  093%=      5-min Rain = 0
KMC4 081224Z 34004KT 03/02 A3026 RMK A01 T00290019  RH  093%=      5-min Rain = 0
KMC4 081225Z 35004KT 03/02 A3025 RMK A01 T00290019  RH  093%=      5-min Rain = 0
KMC4 081226Z 35005KT 03/02 A3025 RMK A01 T00290019  RH  093%=      5-min Rain = 0.01
KMC4 081227Z 34004KT 03/02 A3025 RMK A01 T00290019  RH  093%=      5-min Rain = 0
KMC4 081228Z 34006KT 03/02 A3025 RMK A01 T00290019  RH  093%=      5-min Rain = 0
KMC4 081229Z 34006KT 03/02 A3025 RMK A01 T00290019  RH  093%=      5-min Rain = 0
KMC4 081230Z 34005KT 03/02 A3026 RMK A01 T00290019  RH  093%=      5-min Rain = 0
KMC4 081231Z 33004KT 03/02 A3026 RMK A01 T00290019  RH  093%=      5-min Rain = 0
KMC4 081232Z 33005KT 03/02 A3026 RMK A01 T00290019  RH  093%=      5-min Rain = 0
KMC4 081233Z 32004KT 03/02 A3026 RMK A01 T00290019  RH  093%=      5-min Rain = 0
KMC4 081234Z 32003KT 03/02 A3026 RMK A01 T00290020  RH  093%=      5-min Rain = 0
KMC4 081235Z 33004KT 03/02 A3026 RMK A01 T00290020  RH  094%=      5-min Rain = 0
KMC4 081236Z 33004KT 03/02 A3026 RMK A01 T00290020  RH  094%=      5-min Rain = 0
KMC4 081237Z 32005KT 03/02 A3026 RMK A01 T00290020  RH  094%=      5-min Rain = 0
KMC4 081238Z 32005KT 03/02 A3026 RMK A01 T00290021  RH  094%=      5-min Rain = 0
KMC4 081239Z 32004KT 03/02 A3026 RMK A01 T00290021  RH  094%=      5-min Rain = 0
KMC4 081240Z 33006KT 03/02 A3026 RMK A01 T00290021  RH  094%=      5-min Rain = 0
KMC4 081241Z 33004KT 03/02 A3026 RMK A01 T00290019  RH  093%=      5-min Rain = 0
KMC4 081242Z 33003KT 03/02 A3026 RMK A01 T00290019  RH  093%=      5-min Rain = 0
KMC4 081243Z 33005KT 03/02 A3026 RMK A01 T00290020  RH  093%=      5-min Rain = 0
KMC4 081244Z 33005KT 03/02 A3026 RMK A01 T00300020  RH  094%=      5-min Rain = 0
KMC4 081245Z 33006KT 03/02 A3026 RMK A01 T00290020  RH  093%=      5-min Rain = 0
KMC4 081246Z 35006KT 03/02 A3026 RMK A01 T00290019  RH  093%=      5-min Rain = 0
KMC4 081247Z 33005KT 03/02 A3026 RMK A01 T00290018  RH  093%=      5-min Rain = 0
KMC4 081248Z 33006KT 03/02 A3027 RMK A01 T00290018  RH  093%=      5-min Rain = 0
KMC4 081249Z 33007KT 03/02 A3027 RMK A01 T00290018  RH  093%=      5-min Rain = 0
KMC4 081250Z 32007KT 03/02 A3027 RMK A01 T00280018  RH  093%=      5-min Rain = 0.01
KMC4 081251Z 33006KT 03/02 A3027 RMK A01 T00280018  RH  093%=      5-min Rain = 0
KMC4 081252Z 33005KT 03/02 A3027 RMK A01 T00290018  RH  093%=      5-min Rain = 0
KMC4 081253Z 32004KT 03/02 A3027 RMK A01 T00290018  RH  093%=      5-min Rain = 0
KMC4 081254Z 33004KT 03/02 A3027 RMK A01 T00290019  RH  093%=      5-min Rain = 0
KMC4 081255Z 34005KT 03/02 A3027 RMK A01 T00280019  RH  094%=      5-min Rain = 0
KMC4 081256Z 34006KT 03/02 A3027 RMK A01 T00280018  RH  093%=      5-min Rain = 0
KMC4 081257Z 34006KT 03/02 A3027 RMK A01 T00280017  RH  093%=      5-min Rain = 0
KMC4 081258Z 34005KT 03/02 A3027 RMK A01 T00270016  RH  093%=      5-min Rain = 0
KMC4 081259Z 34005KT 03/02 A3027 RMK A01 T00280017  RH  093%=      5-min Rain = 0.01
KMC4 081300Z 34004KT 03/02 A3027 RMK A01 T00270017  RH  093%=      5-min Rain = 0
KMC4 081301Z 33003KT 03/02 A3027 RMK A01 T00280017  RH  093%=      5-min Rain = 0
KMC4 081302Z 33004KT 03/02 A3027 RMK A01 T00280017  RH  093%=      5-min Rain = 0
KMC4 081303Z 34003KT 03/02 A3027 RMK A01 T00280018  RH  093%=      5-min Rain = 0
KMC4 081304Z 35002KT 03/02 A3027 RMK A01 T00280018  RH  093%=      5-min Rain = 0
KMC4 081305Z 35003KT 03/02 A3027 RMK A01 T00280018  RH  093%=      5-min Rain = 0
KMC4 081306Z 35002KT 03/02 A3027 RMK A01 T00280018  RH  093%=      5-min Rain = 0
KMC4 081307Z 34002KT 03/02 A3027 RMK A01 T00280018  RH  093%=      5-min Rain = 0
KMC4 081308Z 33002KT 03/02 A3027 RMK A01 T00280017  RH  093%=      5-min Rain = 0
KMC4 081309Z 33004KT 03/02 A3027 RMK A01 T00280017  RH  093%=      5-min Rain = 0
KMC4 081310Z 33004KT 03/02 A3027 RMK A01 T00280017  RH  093%=      5-min Rain = 0
KMC4 081311Z 33004KT 03/02 A3027 RMK A01 T00280017  RH  092%=      5-min Rain = 0
KMC4 081312Z 33005KT 03/02 A3028 RMK A01 T00280017  RH  092%=      5-min Rain = 0
KMC4 081313Z 34004KT 03/02 A3028 RMK A01 T00280017  RH  092%=      5-min Rain = 0
KMC4 081314Z 34005KT 03/02 A3028 RMK A01 T00290017  RH  092%=      5-min Rain = 0
KMC4 081315Z 34004KT 03/02 A3028 RMK A01 T00290017  RH  092%=      5-min Rain = 0
KMC4 081316Z 33004KT 03/02 A3028 RMK A01 T00290017  RH  092%=      5-min Rain = 0
KMC4 081317Z 33004KT 03/02 A3028 RMK A01 T00290018  RH  092%=      5-min Rain = 0
KMC4 081318Z 33005KT 03/02 A3028 RMK A01 T00290019  RH  093%=      5-min Rain = 0
KMC4 081319Z 33004KT 03/02 A3028 RMK A01 T00290019  RH  093%=      5-min Rain = 0
KMC4 081320Z 33004KT 03/02 A3028 RMK A01 T00290018  RH  092%=      5-min Rain = 0
KMC4 081321Z 33003KT 03/02 A3028 RMK A01 T00290018  RH  093%=      5-min Rain = 0
KMC4 081322Z 33005KT 03/02 A3028 RMK A01 T00300019  RH  093%=      5-min Rain = 0
KMC4 081323Z 33005KT 03/02 A3028 RMK A01 T00290019  RH  093%=      5-min Rain = 0
KMC4 081324Z 35005KT 03/02 A3028 RMK A01 T00300019  RH  093%=      5-min Rain = 0
KMC4 081325Z 34006KT 03/02 A3028 RMK A01 T00290018  RH  093%=      5-min Rain = 0
KMC4 081326Z 34006KT 03/02 A3028 RMK A01 T00290018  RH  092%=      5-min Rain = 0
KMC4 081327Z 34007KT 03/02 A3028 RMK A01 T00290017  RH  092%=      5-min Rain = 0
KMC4 081328Z 34006KT 03/02 A3028 RMK A01 T00290017  RH  092%=      5-min Rain = 0
KMC4 081329Z 34005KT 03/02 A3028 RMK A01 T00300017  RH  092%=      5-min Rain = 0
KMC4 081330Z 33005KT 03/02 A3028 RMK A01 T00290017  RH  092%=      5-min Rain = 0
KMC4 081331Z 33005KT 03/02 A3028 RMK A01 T00300018  RH  092%=      5-min Rain = 0
KMC4 081332Z 33006KT 03/02 A3028 RMK A01 T00300018  RH  092%=      5-min Rain = 0
KMC4 081333Z 33006KT 03/02 A3028 RMK A01 T00300018  RH  092%=      5-min Rain = 0
KMC4 081334Z 33007KT 03/02 A3028 RMK A01 T00300018  RH  092%=      5-min Rain = 0
KMC4 081335Z 34005KT 03/02 A3028 RMK A01 T00300017  RH  092%=      5-min Rain = 0
KMC4 081336Z 35005KT 03/02 A3028 RMK A01 T00300018  RH  092%=      5-min Rain = 0
KMC4 081337Z 34004KT 03/02 A3028 RMK A01 T00300018  RH  092%=      5-min Rain = 0
KMC4 081338Z 34006KT 03/02 A3028 RMK A01 T00300018  RH  092%=      5-min Rain = 0
KMC4 081339Z 34005KT 03/02 A3028 RMK A01 T00300017  RH  091%=      5-min Rain = 0
KMC4 081340Z 35004KT 03/02 A3028 RMK A01 T00300017  RH  091%=      5-min Rain = 0
KMC4 081341Z 34005KT 03/02 A3028 RMK A01 T00300017  RH  091%=      5-min Rain = 0
KMC4 081342Z 35004KT 03/02 A3028 RMK A01 T00300016  RH  091%=      5-min Rain = 0
KMC4 081343Z 35005KT 03/02 A3028 RMK A01 T00300016  RH  091%=      5-min Rain = 0
KMC4 081344Z 00005KT 03/02 A3028 RMK A01 T00300016  RH  091%=      5-min Rain = 0
KMC4 081345Z 35003KT 03/02 A3028 RMK A01 T00300016  RH  090%=      5-min Rain = 0
KMC4 081346Z 36004KT 03/02 A3028 RMK A01 T00300016  RH  091%=      5-min Rain = 0
KMC4 081347Z 00004KT 03/02 A3028 RMK A01 T00300016  RH  091%=      5-min Rain = 0
KMC4 081348Z 00005KT 03/02 A3028 RMK A01 T00290016  RH  091%=      5-min Rain = 0
KMC4 081349Z 35005KT 03/02 A3028 RMK A01 T00290015  RH  090%=      5-min Rain = 0
KMC4 081350Z 35004KT 03/02 A3028 RMK A01 T00290015  RH  090%=      5-min Rain = 0
KMC4 081351Z 35003KT 03/02 A3028 RMK A01 T00290015  RH  090%=      5-min Rain = 0
KMC4 081352Z 36003KT 03/02 A3029 RMK A01 T00290015  RH  090%=      5-min Rain = 0
KMC4 081353Z 34004KT 03/02 A3029 RMK A01 T00300016  RH  091%=      5-min Rain = 0
KMC4 081354Z 35004KT 03/02 A3029 RMK A01 T00290016  RH  091%=      5-min Rain = 0
KMC4 081355Z 35004KT 03/02 A3029 RMK A01 T00290016  RH  091%=      5-min Rain = 0
KMC4 081356Z 36004KT 03/02 A3029 RMK A01 T00290016  RH  091%=      5-min Rain = 0
KMC4 081357Z 00005KT 03/02 A3029 RMK A01 T00290016  RH  091%=      5-min Rain = 0
KMC4 081358Z 00003KT 03/02 A3029 RMK A01 T00290015  RH  090%=      5-min Rain = 0
KMC4 081359Z 36004KT 03/02 A3029 RMK A01 T00300015  RH  090%=      5-min Rain = 0
KMC4 081400Z 35004KT 03/02 A3029 RMK A01 T00290015  RH  090%=      5-min Rain = 0
KMC4 081401Z 35005KT 03/02 A3029 RMK A01 T00290015  RH  091%=      5-min Rain = 0
KMC4 081402Z 35004KT 03/02 A3029 RMK A01 T00290015  RH  090%=      5-min Rain = 0
KMC4 081403Z 35004KT 03/02 A3029 RMK A01 T00290015  RH  090%=      5-min Rain = 0
KMC4 081404Z 34004KT 03/02 A3029 RMK A01 T00290015  RH  091%=      5-min Rain = 0
KMC4 081405Z 33004KT 03/02 A3029 RMK A01 T00290015  RH  091%=      5-min Rain = 0
KMC4 081406Z 34003KT 03/02 A303 RMK A01 T00290016  RH  091%=      5-min Rain = 0
KMC4 081407Z 35004KT 03/02 A303 RMK A01 T00290016  RH  091%=      5-min Rain = 0
KMC4 081408Z 35004KT 03/02 A303 RMK A01 T00290017  RH  091%=      5-min Rain = 0
KMC4 081409Z 33003KT 03/02 A303 RMK A01 T00290017  RH  091%=      5-min Rain = 0
KMC4 081410Z 31003KT 03/02 A303 RMK A01 T00290017  RH  092%=      5-min Rain = 0
KMC4 081411Z 32003KT 03/02 A303 RMK A01 T00290018  RH  092%=      5-min Rain = 0
KMC4 081412Z 32003KT 03/02 A303 RMK A01 T00290018  RH  092%=      5-min Rain = 0
KMC4 081413Z 32003KT 03/02 A303 RMK A01 T00300018  RH  092%=      5-min Rain = 0
KMC4 081414Z 33003KT 03/02 A303 RMK A01 T00290018  RH  092%=      5-min Rain = 0
KMC4 081415Z 32004KT 03/02 A303 RMK A01 T00290018  RH  092%=      5-min Rain = 0
KMC4 081416Z 32004KT 03/02 A303 RMK A01 T00290018  RH  092%=      5-min Rain = 0
KMC4 081417Z 32004KT 03/02 A303 RMK A01 T00290018  RH  092%=      5-min Rain = 0
KMC4 081418Z 32004KT 03/02 A303 RMK A01 T00300018  RH  092%=      5-min Rain = 0
KMC4 081419Z 32004KT 03/02 A303 RMK A01 T00300018  RH  092%=      5-min Rain = 0
KMC4 081420Z 32005KT 03/02 A303 RMK A01 T00300019  RH  092%=      5-min Rain = 0
KMC4 081421Z 32004KT 03/02 A303 RMK A01 T00300018  RH  092%=      5-min Rain = 0
KMC4 081422Z 33007KT 03/02 A303 RMK A01 T00300018  RH  092%=      5-min Rain = 0
KMC4 081423Z 34006KT 03/02 A303 RMK A01 T00300017  RH  092%=      5-min Rain = 0
KMC4 081424Z 33005KT 03/02 A303 RMK A01 T00290016  RH  091%=      5-min Rain = 0
KMC4 081425Z 33007KT 03/02 A303 RMK A01 T00290016  RH  091%=      5-min Rain = 0
KMC4 081426Z 34007KT 03/02 A303 RMK A01 T00290015  RH  090%=      5-min Rain = 0
KMC4 081427Z 34007KT 03/01 A303 RMK A01 T00290014  RH  090%=      5-min Rain = 0
KMC4 081428Z 34007KT 03/01 A303 RMK A01 T00290014  RH  089%=      5-min Rain = 0
KMC4 081429Z 35007KT 03/01 A303 RMK A01 T00290014  RH  090%=      5-min Rain = 0
KMC4 081430Z 35007KT 03/01 A303 RMK A01 T00300014  RH  089%=      5-min Rain = 0
KMC4 081431Z 36007KT 03/01 A303 RMK A01 T00290012  RH  089%=      5-min Rain = 0
KMC4 081432Z 35004KT 03/01 A303 RMK A01 T00300012  RH  088%=      5-min Rain = 0
KMC4 081433Z 34005KT 03/01 A303 RMK A01 T00290013  RH  089%=      5-min Rain = 0
KMC4 081434Z 34006KT 03/01 A303 RMK A01 T00290013  RH  089%=      5-min Rain = 0
KMC4 081435Z 34005KT 03/01 A303 RMK A01 T00290013  RH  089%=      5-min Rain = 0
KMC4 081436Z 34005KT 03/01 A303 RMK A01 T00300013  RH  089%=      5-min Rain = 0
KMC4 081437Z 34006KT 03/01 A3031 RMK A01 T00290014  RH  090%=      5-min Rain = 0
KMC4 081438Z 34005KT 03/01 A3031 RMK A01 T00300014  RH  090%=      5-min Rain = 0
KMC4 081439Z 34006KT 03/01 A3031 RMK A01 T00290014  RH  090%=      5-min Rain = 0
KMC4 081440Z 34004KT 03/02 A3031 RMK A01 T00290015  RH  090%=      5-min Rain = 0
KMC4 081441Z 34006KT 03/02 A3031 RMK A01 T00290015  RH  090%=      5-min Rain = 0
KMC4 081442Z 35007KT 03/02 A3031 RMK A01 T00290015  RH  090%=      5-min Rain = 0
KMC4 081443Z 35005KT 03/01 A3031 RMK A01 T00290013  RH  089%=      5-min Rain = 0
KMC4 081444Z 35006KT 03/01 A3031 RMK A01 T00290013  RH  089%=      5-min Rain = 0
KMC4 081445Z 35005KT 03/01 A3031 RMK A01 T00290013  RH  089%=      5-min Rain = 0
KMC4 081446Z 35005KT 03/01 A3031 RMK A01 T00290013  RH  089%=      5-min Rain = 0
KMC4 081447Z 00006KT 03/01 A3031 RMK A01 T00290013  RH  089%=      5-min Rain = 0
KMC4 081448Z 36004KT 03/01 A3031 RMK A01 T00290013  RH  089%=      5-min Rain = 0
KMC4 081449Z 35004KT 03/01 A3031 RMK A01 T00290013  RH  089%=      5-min Rain = 0
KMC4 081450Z 36004KT 03/01 A3031 RMK A01 T00290013  RH  089%=      5-min Rain = 0
KMC4 081451Z 00004KT 03/01 A3031 RMK A01 T00300013  RH  089%=      5-min Rain = 0
KMC4 081452Z 35003KT 03/01 A3031 RMK A01 T00300013  RH  089%=      5-min Rain = 0
KMC4 081453Z 35004KT 03/01 A3031 RMK A01 T00300014  RH  089%=      5-min Rain = 0
KMC4 081454Z 35004KT 03/02 A3031 RMK A01 T00300015  RH  089%=      5-min Rain = 0
KMC4 081455Z 00004KT 03/01 A3031 RMK A01 T00300014  RH  089%=      5-min Rain = 0
KMC4 081456Z 35004KT 03/01 A3031 RMK A01 T00300014  RH  089%=      5-min Rain = 0
KMC4 081457Z 35004KT 03/01 A3031 RMK A01 T00300014  RH  089%=      5-min Rain = 0
KMC4 081458Z 01003KT 03/01 A3031 RMK A01 T00310014  RH  089%=      5-min Rain = 0
KMC4 081459Z 35002KT 03/02 A3031 RMK A01 T00310015  RH  089%=      5-min Rain = 0
KMC4 081500Z 34004KT 03/02 A3031 RMK A01 T00310016  RH  090%=      5-min Rain = 0
KMC4 081501Z 34006KT 03/02 A3031 RMK A01 T00310016  RH  090%=      5-min Rain = 0
KMC4 081502Z 01005KT 03/02 A3031 RMK A01 T00310015  RH  089%=      5-min Rain = 0
KMC4 081503Z 35004KT 03/02 A3032 RMK A01 T00310015  RH  089%=      5-min Rain = 0
KMC4 081504Z 35005KT 03/02 A3032 RMK A01 T00310015  RH  089%=      5-min Rain = 0
KMC4 081505Z 35004KT 03/01 A3032 RMK A01 T00310014  RH  089%=      5-min Rain = 0
KMC4 081506Z 34004KT 03/01 A3032 RMK A01 T00310014  RH  089%=      5-min Rain = 0
KMC4 081507Z 35003KT 03/02 A3032 RMK A01 T00310015  RH  089%=      5-min Rain = 0
KMC4 081508Z 34004KT 03/02 A3032 RMK A01 T00310015  RH  089%=      5-min Rain = 0
KMC4 081509Z 35004KT 03/02 A3032 RMK A01 T00310015  RH  089%=      5-min Rain = 0
KMC4 081510Z 35005KT 03/01 A3032 RMK A01 T00310014  RH  089%=      5-min Rain = 0
KMC4 081511Z 00005KT 03/01 A3032 RMK A01 T00310014  RH  089%=      5-min Rain = 0
KMC4 081512Z 34004KT 03/02 A3032 RMK A01 T00310015  RH  089%=      5-min Rain = 0
KMC4 081513Z 35004KT 03/02 A3032 RMK A01 T00310015  RH  089%=      5-min Rain = 0
KMC4 081514Z 33004KT 03/02 A3032 RMK A01 T00310016  RH  089%=      5-min Rain = 0
KMC4 081515Z 33004KT 03/02 A3032 RMK A01 T00310016  RH  090%=      5-min Rain = 0
KMC4 081516Z 33004KT 03/02 A3032 RMK A01 T00310017  RH  090%=      5-min Rain = 0
KMC4 081517Z 33005KT 03/02 A3033 RMK A01 T00310016  RH  090%=      5-min Rain = 0
KMC4 081518Z 33005KT 03/02 A3033 RMK A01 T00310016  RH  090%=      5-min Rain = 0
KMC4 081519Z 34004KT 03/02 A3033 RMK A01 T00310016  RH  090%=      5-min Rain = 0
KMC4 081520Z 34004KT 03/02 A3033 RMK A01 T00310016  RH  090%=      5-min Rain = 0
KMC4 081521Z 34005KT 03/02 A3033 RMK A01 T00310017  RH  090%=      5-min Rain = 0
KMC4 081522Z 33005KT 03/02 A3033 RMK A01 T00310017  RH  090%=      5-min Rain = 0
KMC4 081523Z 32004KT 03/02 A3033 RMK A01 T00310017  RH  090%=      5-min Rain = 0
KMC4 081524Z 32004KT 03/02 A3033 RMK A01 T00310018  RH  091%=      5-min Rain = 0
KMC4 081525Z 32005KT 03/02 A3033 RMK A01 T00310018  RH  091%=      5-min Rain = 0
KMC4 081526Z 33005KT 03/02 A3033 RMK A01 T00320018  RH  091%=      5-min Rain = 0
KMC4 081527Z 32004KT 03/02 A3033 RMK A01 T00320018  RH  091%=      5-min Rain = 0
KMC4 081528Z 32005KT 03/02 A3033 RMK A01 T00320018  RH  091%=      5-min Rain = 0
KMC4 081529Z 32004KT 03/02 A3033 RMK A01 T00320019  RH  091%=      5-min Rain = 0
KMC4 081530Z 33004KT 03/02 A3033 RMK A01 T00320018  RH  091%=      5-min Rain = 0
KMC4 081531Z 32004KT 03/02 A3033 RMK A01 T00320018  RH  091%=      5-min Rain = 0
KMC4 081532Z 33003KT 03/02 A3033 RMK A01 T00320018  RH  091%=      5-min Rain = 0
KMC4 081533Z 32002KT 03/02 A3033 RMK A01 T00320019  RH  091%=      5-min Rain = 0
KMC4 081534Z 32003KT 03/02 A3033 RMK A01 T00320019  RH  091%=      5-min Rain = 0
KMC4 081535Z 31003KT 03/02 A3033 RMK A01 T00320019  RH  091%=      5-min Rain = 0
KMC4 081536Z 32003KT 03/02 A3033 RMK A01 T00320018  RH  091%=      5-min Rain = 0
KMC4 081537Z 33004KT 03/02 A3033 RMK A01 T00330020  RH  091%=      5-min Rain = 0
KMC4 081538Z 33003KT 03/02 A3033 RMK A01 T00330020  RH  091%=      5-min Rain = 0
KMC4 081539Z 32004KT 03/02 A3033 RMK A01 T00330019  RH  091%=      5-min Rain = 0
KMC4 081540Z 32003KT 03/02 A3033 RMK A01 T00330019  RH  091%=      5-min Rain = 0
KMC4 081541Z 32004KT 03/02 A3033 RMK A01 T00340020  RH  091%=      5-min Rain = 0
KMC4 081542Z 33004KT 03/02 A3033 RMK A01 T00330019  RH  091%=      5-min Rain = 0
KMC4 081543Z 32005KT 03/02 A3033 RMK A01 T00340020  RH  091%=      5-min Rain = 0
KMC4 081544Z 33005KT 03/02 A3033 RMK A01 T00340020  RH  091%=      5-min Rain = 0
KMC4 081545Z 33003KT 03/02 A3033 RMK A01 T00340021  RH  091%=      5-min Rain = 0
KMC4 081546Z 34003KT 04/02 A3033 RMK A01 T00350021  RH  091%=      5-min Rain = 0
KMC4 081547Z 34003KT 03/02 A3033 RMK A01 T00340020  RH  090%=      5-min Rain = 0
KMC4 081548Z 30003KT 03/02 A3033 RMK A01 T00340020  RH  090%=      5-min Rain = 0
KMC4 081549Z 30003KT 03/02 A3033 RMK A01 T00340020  RH  090%=      5-min Rain = 0
KMC4 081550Z 30004KT 03/02 A3033 RMK A01 T00340020  RH  090%=      5-min Rain = 0
KMC4 081551Z 31003KT 04/02 A3033 RMK A01 T00350020  RH  090%=      5-min Rain = 0
KMC4 081552Z 32003KT 03/02 A3033 RMK A01 T00340019  RH  090%=      5-min Rain = 0
KMC4 081553Z 33003KT 03/02 A3033 RMK A01 T00340020  RH  090%=      5-min Rain = 0
KMC4 081554Z 32003KT 03/02 A3033 RMK A01 T00340020  RH  091%=      5-min Rain = 0
KMC4 081555Z 31003KT 03/02 A3033 RMK A01 T00340021  RH  091%=      5-min Rain = 0
KMC4 081556Z 32003KT 03/02 A3033 RMK A01 T00340022  RH  091%=      5-min Rain = 0
KMC4 081557Z 32003KT 04/02 A3033 RMK A01 T00350023  RH  092%=      5-min Rain = 0
KMC4 081558Z 31003KT 04/02 A3033 RMK A01 T00350023  RH  092%=      5-min Rain = 0
KMC4 081559Z 32003KT 04/02 A3033 RMK A01 T00350023  RH  092%=      5-min Rain = 0
KMC4 081600Z 33005KT 04/02 A3033 RMK A01 T00350023  RH  092%=      5-min Rain = 0
KMC4 081601Z 33004KT 04/02 A3033 RMK A01 T00350023  RH  092%=      5-min Rain = 0
KMC4 081602Z 34005KT 04/02 A3033 RMK A01 T00350022  RH  091%=      5-min Rain = 0
KMC4 081603Z 33004KT 04/02 A3033 RMK A01 T00350022  RH  091%=      5-min Rain = 0
KMC4 081604Z 33005KT 04/02 A3033 RMK A01 T00350022  RH  092%=      5-min Rain = 0
KMC4 081605Z 33005KT 03/02 A3033 RMK A01 T00340022  RH  092%=      5-min Rain = 0
KMC4 081606Z 33005KT 04/02 A3033 RMK A01 T00350023  RH  092%=      5-min Rain = 0
KMC4 081607Z 33004KT 04/02 A3033 RMK A01 T00350023  RH  092%=      5-min Rain = 0
KMC4 081608Z 32005KT 04/02 A3034 RMK A01 T00350023  RH  092%=      5-min Rain = 0
KMC4 081609Z 33004KT 04/03 A3034 RMK A01 T00360025  RH  093%=      5-min Rain = 0
KMC4 081610Z 33004KT 04/02 A3033 RMK A01 T00360024  RH  092%=      5-min Rain = 0
KMC4 081611Z 33004KT 04/02 A3033 RMK A01 T00350023  RH  092%=      5-min Rain = 0
KMC4 081612Z 33004KT 04/02 A3034 RMK A01 T00350023  RH  092%=      5-min Rain = 0
KMC4 081613Z 33004KT 04/02 A3034 RMK A01 T00350024  RH  092%=      5-min Rain = 0
KMC4 081614Z 33004KT 04/03 A3034 RMK A01 T00360025  RH  093%=      5-min Rain = 0
KMC4 081615Z 33005KT 04/03 A3034 RMK A01 T00360026  RH  093%=      5-min Rain = 0
KMC4 081616Z 32004KT 04/03 A3034 RMK A01 T00370026  RH  093%=      5-min Rain = 0
KMC4 081617Z 32004KT 04/03 A3034 RMK A01 T00370025  RH  092%=      5-min Rain = 0
KMC4 081618Z 35004KT 04/03 A3034 RMK A01 T00370025  RH  092%=      5-min Rain = 0
KMC4 081619Z 34003KT 04/02 A3034 RMK A01 T00360023  RH  091%=      5-min Rain = 0
KMC4 081620Z 34004KT 04/02 A3034 RMK A01 T00360020  RH  090%=      5-min Rain = 0
KMC4 081621Z 35004KT 04/02 A3034 RMK A01 T00360021  RH  090%=      5-min Rain = 0
KMC4 081622Z 33003KT 04/02 A3034 RMK A01 T00360022  RH  090%=      5-min Rain = 0
KMC4 081623Z 31004KT 04/02 A3034 RMK A01 T00360022  RH  090%=      5-min Rain = 0
KMC4 081624Z 31005KT 04/02 A3034 RMK A01 T00370023  RH  091%=      5-min Rain = 0
KMC4 081625Z 32004KT 04/02 A3034 RMK A01 T00370023  RH  091%=      5-min Rain = 0
KMC4 081626Z 32004KT 04/02 A3034 RMK A01 T00370023  RH  090%=      5-min Rain = 0
KMC4 081627Z 32004KT 04/02 A3034 RMK A01 T00360021  RH  090%=      5-min Rain = 0
KMC4 081628Z 32003KT 04/02 A3034 RMK A01 T00360021  RH  090%=      5-min Rain = 0
KMC4 081629Z 32003KT 04/02 A3034 RMK A01 T00360021  RH  090%=      5-min Rain = 0
KMC4 081630Z 31004KT 04/02 A3034 RMK A01 T00370023  RH  091%=      5-min Rain = 0
KMC4 081631Z 32004KT 04/02 A3034 RMK A01 T00370024  RH  091%=      5-min Rain = 0
KMC4 081632Z 31004KT 04/02 A3034 RMK A01 T00380023  RH  091%=      5-min Rain = 0
KMC4 081633Z 31004KT 04/02 A3034 RMK A01 T00380022  RH  089%=      5-min Rain = 0
KMC4 081634Z 32003KT 04/02 A3034 RMK A01 T00370021  RH  089%=      5-min Rain = 0
KMC4 081635Z 31003KT 04/02 A3034 RMK A01 T00370021  RH  089%=      5-min Rain = 0
KMC4 081636Z 31003KT 04/02 A3034 RMK A01 T00380022  RH  089%=      5-min Rain = 0
KMC4 081637Z 33004KT 04/02 A3034 RMK A01 T00380022  RH  090%=      5-min Rain = 0
KMC4 081638Z 34005KT 04/02 A3034 RMK A01 T00380023  RH  090%=      5-min Rain = 0
KMC4 081639Z 33004KT 04/02 A3034 RMK A01 T00390022  RH  089%=      5-min Rain = 0
KMC4 081640Z 33004KT 04/02 A3034 RMK A01 T00390022  RH  089%=      5-min Rain = 0
KMC4 081641Z 32004KT 04/02 A3034 RMK A01 T00390022  RH  089%=      5-min Rain = 0
KMC4 081642Z 31005KT 04/02 A3034 RMK A01 T00390021  RH  088%=      5-min Rain = 0
KMC4 081643Z 33006KT 04/02 A3034 RMK A01 T00390021  RH  088%=      5-min Rain = 0
KMC4 081644Z 33006KT 04/02 A3034 RMK A01 T00390020  RH  088%=      5-min Rain = 0
KMC4 081645Z 34006KT 04/02 A3034 RMK A01 T00390021  RH  088%=      5-min Rain = 0
KMC4 081646Z 33005KT 04/02 A3034 RMK A01 T00390021  RH  088%=      5-min Rain = 0
KMC4 081647Z 33006KT 04/02 A3034 RMK A01 T00390021  RH  088%=      5-min Rain = 0
KMC4 081648Z 32005KT 04/02 A3034 RMK A01 T00400023  RH  089%=      5-min Rain = 0
KMC4 081649Z 32005KT 04/02 A3034 RMK A01 T00400024  RH  089%=      5-min Rain = 0
KMC4 081650Z 33005KT 04/02 A3034 RMK A01 T00400024  RH  089%=      5-min Rain = 0
KMC4 081651Z 33005KT 04/02 A3034 RMK A01 T00410024  RH  089%=      5-min Rain = 0
KMC4 081652Z 32004KT 04/02 A3034 RMK A01 T00410022  RH  088%=      5-min Rain = 0
KMC4 081653Z 31006KT 04/02 A3034 RMK A01 T00410024  RH  089%=      5-min Rain = 0
KMC4 081654Z 32005KT 04/02 A3034 RMK A01 T00410022  RH  088%=      5-min Rain = 0
KMC4 081655Z 31004KT 04/02 A3034 RMK A01 T00400022  RH  088%=      5-min Rain = 0
KMC4 081656Z 30004KT 04/02 A3034 RMK A01 T00400023  RH  088%=      5-min Rain = 0
KMC4 081657Z 30005KT 04/02 A3034 RMK A01 T00400023  RH  089%=      5-min Rain = 0
KMC4 081658Z 31005KT 04/02 A3034 RMK A01 T00400023  RH  089%=      5-min Rain = 0
KMC4 081659Z 31004KT 04/02 A3034 RMK A01 T00400022  RH  088%=      5-min Rain = 0
KMC4 081700Z 31004KT 04/02 A3034 RMK A01 T00400023  RH  089%=      5-min Rain = 0
KMC4 081701Z 31005KT 04/03 A3034 RMK A01 T00410025  RH  089%=      5-min Rain = 0
KMC4 081702Z 30006KT 04/02 A3034 RMK A01 T00410023  RH  088%=      5-min Rain = 0
KMC4 081703Z 31004KT 04/02 A3034 RMK A01 T00410022  RH  088%=      5-min Rain = 0
KMC4 081704Z 31005KT 04/02 A3034 RMK A01 T00400022  RH  088%=      5-min Rain = 0
KMC4 081705Z 33005KT 04/02 A3034 RMK A01 T00400022  RH  088%=      5-min Rain = 0
KMC4 081706Z 32004KT 04/02 A3034 RMK A01 T00410023  RH  088%=      5-min Rain = 0
KMC4 081707Z 32003KT 04/02 A3034 RMK A01 T00410024  RH  088%=      5-min Rain = 0
KMC4 081708Z 32004KT 04/03 A3034 RMK A01 T00420025  RH  089%=      5-min Rain = 0
KMC4 081709Z 31005KT 04/03 A3034 RMK A01 T00430027  RH  089%=      5-min Rain = 0
KMC4 081710Z 30005KT 04/03 A3034 RMK A01 T00430025  RH  088%=      5-min Rain = 0
KMC4 081711Z 30005KT 04/02 A3034 RMK A01 T00420023  RH  087%=      5-min Rain = 0
KMC4 081712Z 31005KT 04/02 A3034 RMK A01 T00420022  RH  087%=      5-min Rain = 0
KMC4 081713Z 31005KT 04/02 A3034 RMK A01 T00420023  RH  088%=      5-min Rain = 0
KMC4 081714Z 31005KT 04/03 A3034 RMK A01 T00420025  RH  089%=      5-min Rain = 0
KMC4 081715Z 30007KT 04/03 A3034 RMK A01 T00420025  RH  089%=      5-min Rain = 0
KMC4 081716Z 30006KT 04/03 A3034 RMK A01 T00420025  RH  089%=      5-min Rain = 0
KMC4 081717Z 30005KT 04/03 A3034 RMK A01 T00410025  RH  089%=      5-min Rain = 0
KMC4 081718Z 30005KT 04/02 A3034 RMK A01 T00410023  RH  089%=      5-min Rain = 0
KMC4 081719Z 30005KT 04/02 A3034 RMK A01 T00400023  RH  088%=      5-min Rain = 0
KMC4 081720Z 30005KT 04/02 A3034 RMK A01 T00400023  RH  089%=      5-min Rain = 0
KMC4 081721Z 31005KT 04/02 A3034 RMK A01 T00400024  RH  089%=      5-min Rain = 0
KMC4 081722Z 32005KT 04/02 A3034 RMK A01 T00400024  RH  089%=      5-min Rain = 0
KMC4 081723Z 33005KT 04/03 A3034 RMK A01 T00410026  RH  090%=      5-min Rain = 0
KMC4 081724Z 31004KT 04/03 A3034 RMK A01 T00420025  RH  089%=      5-min Rain = 0
KMC4 081725Z 31005KT 04/03 A3034 RMK A01 T00420025  RH  089%=      5-min Rain = 0
KMC4 081726Z 30004KT 04/02 A3034 RMK A01 T00420024  RH  088%=      5-min Rain = 0
KMC4 081727Z 30004KT 04/03 A3034 RMK A01 T00420025  RH  089%=      5-min Rain = 0
KMC4 081728Z 32005KT 04/03 A3034 RMK A01 T00430026  RH  089%=      5-min Rain = 0
KMC4 081729Z 31003KT 04/03 A3034 RMK A01 T00430025  RH  088%=      5-min Rain = 0
KMC4 081730Z 29004KT 04/02 A3034 RMK A01 T00430024  RH  088%=      5-min Rain = 0
KMC4 081731Z 29005KT 04/03 A3034 RMK A01 T00430025  RH  088%=      5-min Rain = 0
KMC4 081732Z 30005KT 04/03 A3034 RMK A01 T00430025  RH  088%=      5-min Rain = 0
KMC4 081733Z 31003KT 04/03 A3034 RMK A01 T00440027  RH  089%=      5-min Rain = 0
KMC4 081734Z 31005KT 05/03 A3034 RMK A01 T00450026  RH  088%=      5-min Rain = 0
KMC4 081735Z 32005KT 05/03 A3034 RMK A01 T00450026  RH  087%=      5-min Rain = 0
KMC4 081736Z 32006KT 05/03 A3034 RMK A01 T00450026  RH  087%=      5-min Rain = 0
KMC4 081737Z 31005KT 05/02 A3034 RMK A01 T00450024  RH  086%=      5-min Rain = 0
KMC4 081738Z 31007KT 05/03 A3034 RMK A01 T00450025  RH  087%=      5-min Rain = 0
KMC4 081739Z 31006KT 05/03 A3034 RMK A01 T00460025  RH  086%=      5-min Rain = 0
KMC4 081740Z 31005KT 05/03 A3034 RMK A01 T00460025  RH  086%=      5-min Rain = 0
KMC4 081741Z 31008KT 05/03 A3034 RMK A01 T00460026  RH  087%=      5-min Rain = 0
KMC4 081742Z 31007KT 05/03 A3034 RMK A01 T00460025  RH  086%=      5-min Rain = 0
KMC4 081743Z 31007KT 05/03 A3034 RMK A01 T00460025  RH  086%=      5-min Rain = 0
KMC4 081744Z 31007KT 05/03 A3033 RMK A01 T00460026  RH  087%=      5-min Rain = 0
KMC4 081745Z 31008KT 05/02 A3033 RMK A01 T00460024  RH  085%=      5-min Rain = 0
KMC4 081746Z 32007KT 05/02 A3033 RMK A01 T00460022  RH  085%=      5-min Rain = 0
KMC4 081747Z 32007KT 05/02 A3033 RMK A01 T00460024  RH  086%=      5-min Rain = 0
KMC4 081748Z 32008KT 05/02 A3033 RMK A01 T00450023  RH  086%=      5-min Rain = 0
KMC4 081749Z 32007KT 05/02 A3033 RMK A01 T00460023  RH  085%=      5-min Rain = 0
KMC4 081750Z 33008KT 05/02 A3033 RMK A01 T00450023  RH  086%=      5-min Rain = 0
KMC4 081751Z 33008KT 05/02 A3033 RMK A01 T00450024  RH  086%=      5-min Rain = 0
KMC4 081752Z 33007KT 05/02 A3033 RMK A01 T00460024  RH  086%=      5-min Rain = 0
KMC4 081753Z 32008KT 05/03 A3033 RMK A01 T00460025  RH  086%=      5-min Rain = 0
KMC4 081754Z 31008KT 05/03 A3033 RMK A01 T00460026  RH  087%=      5-min Rain = 0
KMC4 081755Z 31009KT 05/03 A3033 RMK A01 T00460027  RH  087%=      5-min Rain = 0
KMC4 081756Z 31009KT 05/03 A3033 RMK A01 T00460025  RH  086%=      5-min Rain = 0
KMC4 081757Z 31007KT 05/03 A3033 RMK A01 T00460025  RH  086%=      5-min Rain = 0
KMC4 081758Z 31007KT 05/03 A3033 RMK A01 T00460026  RH  086%=      5-min Rain = 0
KMC4 081759Z 30007KT 05/03 A3033 RMK A01 T00460026  RH  086%=      5-min Rain = 0
KMC4 081800Z 30007KT 05/03 A3033 RMK A01 T00460025  RH  086%=      5-min Rain = 0
KMC4 081801Z 30007KT 05/02 A3033 RMK A01 T00460024  RH  086%=      5-min Rain = 0
KMC4 081802Z 30008KT 05/02 A3033 RMK A01 T00460024  RH  086%=      5-min Rain = 0
KMC4 081803Z 29009KT 05/03 A3033 RMK A01 T00450025  RH  087%=      5-min Rain = 0
KMC4 081804Z 30009KT 05/03 A3033 RMK A01 T00450026  RH  087%=      5-min Rain = 0
KMC4 081805Z 28008KT 05/03 A3033 RMK A01 T00450026  RH  088%=      5-min Rain = 0
KMC4 081806Z 29008KT 05/03 A3033 RMK A01 T00450027  RH  088%=      5-min Rain = 0
KMC4 081807Z 29010KT 05/03 A3033 RMK A01 T00450027  RH  088%=      5-min Rain = 0
KMC4 081808Z 29008KT 05/03 A3033 RMK A01 T00450026  RH  088%=      5-min Rain = 0
KMC4 081809Z 30009KT 05/03 A3033 RMK A01 T00450027  RH  088%=      5-min Rain = 0
KMC4 081810Z 30008KT 05/03 A3033 RMK A01 T00450026  RH  088%=      5-min Rain = 0
KMC4 081811Z 29009KT 05/03 A3033 RMK A01 T00450026  RH  088%=      5-min Rain = 0
KMC4 081812Z 29008KT 05/03 A3033 RMK A01 T00450026  RH  087%=      5-min Rain = 0
KMC4 081813Z 30006KT 05/03 A3033 RMK A01 T00450026  RH  088%=      5-min Rain = 0
KMC4 081814Z 30007KT 05/03 A3033 RMK A01 T00450027  RH  088%=      5-min Rain = 0
KMC4 081815Z 30007KT 05/03 A3033 RMK A01 T00450028  RH  088%=      5-min Rain = 0
KMC4 081816Z 29008KT 05/03 A3033 RMK A01 T00450028  RH  089%=      5-min Rain = 0
KMC4 081817Z 30010KT 05/03 A3032 RMK A01 T00450027  RH  088%=      5-min Rain = 0
KMC4 081818Z 30008KT 05/03 A3032 RMK A01 T00450027  RH  088%=      5-min Rain = 0
KMC4 081819Z 31009KT 05/03 A3032 RMK A01 T00450027  RH  088%=      5-min Rain = 0
KMC4 081820Z 30009KT 05/03 A3032 RMK A01 T00450028  RH  089%=      5-min Rain = 0
KMC4 081821Z 31009KT 05/03 A3032 RMK A01 T00450028  RH  089%=      5-min Rain = 0
KMC4 081822Z 31010KT 05/03 A3032 RMK A01 T00450028  RH  089%=      5-min Rain = 0
KMC4 081823Z 31008KT 05/03 A3032 RMK A01 T00450028  RH  089%=      5-min Rain = 0
KMC4 081824Z 31008KT 05/03 A3032 RMK A01 T00450030  RH  090%=      5-min Rain = 0
KMC4 081825Z 32008KT 05/03 A3032 RMK A01 T00450031  RH  090%=      5-min Rain = 0
KMC4 081826Z 32010KT 05/03 A3032 RMK A01 T00450030  RH  090%=      5-min Rain = 0
KMC4 081827Z 32007KT 05/03 A3032 RMK A01 T00450028  RH  089%=      5-min Rain = 0
KMC4 081828Z 32009KT 04/03 A3032 RMK A01 T00440028  RH  089%=      5-min Rain = 0
KMC4 081829Z 32008KT 04/03 A3032 RMK A01 T00440027  RH  089%=      5-min Rain = 0
KMC4 081830Z 33008KT 04/03 A3032 RMK A01 T00440027  RH  089%=      5-min Rain = 0
KMC4 081831Z 33007KT 04/03 A3032 RMK A01 T00440027  RH  089%=      5-min Rain = 0
KMC4 081832Z 32007KT 04/03 A3032 RMK A01 T00440026  RH  089%=      5-min Rain = 0
KMC4 081833Z 32005KT 04/03 A3032 RMK A01 T00440027  RH  089%=      5-min Rain = 0
KMC4 081834Z 32006KT 05/03 A3032 RMK A01 T00450029  RH  090%=      5-min Rain = 0
KMC4 081835Z 32007KT 05/03 A3031 RMK A01 T00450030  RH  089%=      5-min Rain = 0
KMC4 081836Z 31009KT 05/03 A3031 RMK A01 T00460029  RH  089%=      5-min Rain = 0
KMC4 081837Z 31008KT 05/03 A3031 RMK A01 T00450028  RH  089%=      5-min Rain = 0
KMC4 081838Z 30007KT 05/03 A3031 RMK A01 T00450028  RH  089%=      5-min Rain = 0
KMC4 081839Z 29008KT 05/03 A3031 RMK A01 T00450028  RH  089%=      5-min Rain = 0
KMC4 081840Z 30009KT 04/03 A3031 RMK A01 T00440028  RH  089%=      5-min Rain = 0
KMC4 081841Z 30008KT 05/03 A3031 RMK A01 T00450027  RH  088%=      5-min Rain = 0
KMC4 081842Z 31008KT 04/03 A3031 RMK A01 T00440027  RH  088%=      5-min Rain = 0
KMC4 081843Z 31007KT 04/03 A3031 RMK A01 T00440026  RH  088%=      5-min Rain = 0
KMC4 081844Z 32007KT 05/03 A3031 RMK A01 T00450026  RH  088%=      5-min Rain = 0
KMC4 081845Z 31007KT 05/03 A3031 RMK A01 T00450026  RH  088%=      5-min Rain = 0
KMC4 081846Z 30006KT 05/03 A3031 RMK A01 T00450026  RH  088%=      5-min Rain = 0
KMC4 081847Z 30006KT 05/03 A3031 RMK A01 T00460028  RH  088%=      5-min Rain = 0
KMC4 081848Z 31008KT 05/03 A3031 RMK A01 T00470030  RH  089%=      5-min Rain = 0
KMC4 081849Z 32009KT 05/03 A3031 RMK A01 T00470030  RH  089%=      5-min Rain = 0
KMC4 081850Z 32010KT 05/03 A3031 RMK A01 T00470028  RH  088%=      5-min Rain = 0
KMC4 081851Z 32008KT 05/03 A3031 RMK A01 T00460027  RH  087%=      5-min Rain = 0
KMC4 081852Z 32008KT 05/03 A3031 RMK A01 T00460027  RH  087%=      5-min Rain = 0
KMC4 081853Z 32009KT 05/03 A3031 RMK A01 T00460027  RH  088%=      5-min Rain = 0
KMC4 081854Z 32009KT 05/03 A3031 RMK A01 T00460027  RH  088%=      5-min Rain = 0
KMC4 081855Z 32009KT 05/03 A3031 RMK A01 T00450026  RH  087%=      5-min Rain = 0
KMC4 081856Z 33009KT 05/03 A3031 RMK A01 T00450026  RH  087%=      5-min Rain = 0
KMC4 081857Z 32007KT 05/03 A3031 RMK A01 T00450026  RH  088%=      5-min Rain = 0
KMC4 081858Z 32007KT 05/03 A3031 RMK A01 T00450028  RH  089%=      5-min Rain = 0
KMC4 081859Z 31008KT 05/03 A3031 RMK A01 T00460028  RH  088%=      5-min Rain = 0
KMC4 081900Z 30008KT 05/03 A303 RMK A01 T00460027  RH  088%=      5-min Rain = 0
KMC4 081901Z 31009KT 05/03 A303 RMK A01 T00450026  RH  087%=      5-min Rain = 0
KMC4 081902Z 32007KT 05/03 A303 RMK A01 T00460028  RH  088%=      5-min Rain = 0
KMC4 081903Z 31008KT 05/03 A303 RMK A01 T00470029  RH  088%=      5-min Rain = 0
KMC4 081904Z 31008KT 05/03 A303 RMK A01 T00460027  RH  087%=      5-min Rain = 0
KMC4 081905Z 31008KT 05/03 A303 RMK A01 T00450026  RH  087%=      5-min Rain = 0
KMC4 081906Z 31007KT 05/03 A303 RMK A01 T00450026  RH  087%=      5-min Rain = 0
KMC4 081907Z 32006KT 05/03 A303 RMK A01 T00450027  RH  088%=      5-min Rain = 0
KMC4 081908Z 32007KT 05/03 A303 RMK A01 T00460029  RH  089%=      5-min Rain = 0
KMC4 081909Z 31008KT 05/03 A303 RMK A01 T00470030  RH  089%=      5-min Rain = 0
KMC4 081910Z 31007KT 05/03 A303 RMK A01 T00470028  RH  088%=      5-min Rain = 0
KMC4 081911Z 31006KT 05/03 A303 RMK A01 T00470027  RH  087%=      5-min Rain = 0
KMC4 081912Z 32007KT 05/03 A303 RMK A01 T00470027  RH  087%=      5-min Rain = 0
KMC4 081913Z 31008KT 05/03 A303 RMK A01 T00470028  RH  088%=      5-min Rain = 0
KMC4 081914Z 31007KT 05/03 A303 RMK A01 T00470028  RH  088%=      5-min Rain = 0
KMC4 081915Z 30009KT 05/03 A303 RMK A01 T00470028  RH  088%=      5-min Rain = 0
KMC4 081916Z 29010KT 05/03 A303 RMK A01 T00460027  RH  087%=      5-min Rain = 0
KMC4 081917Z 30009KT 05/03 A303 RMK A01 T00460027  RH  087%=      5-min Rain = 0
KMC4 081918Z 30013KT 05/03 A303 RMK A01 T00460027  RH  087%=      5-min Rain = 0
KMC4 081919Z 31009KT 05/03 A303 RMK A01 T00450027  RH  088%=      5-min Rain = 0
KMC4 081920Z 32008KT 05/03 A303 RMK A01 T00460028  RH  089%=      5-min Rain = 0
KMC4 081921Z 33009KT 05/03 A303 RMK A01 T00460029  RH  089%=      5-min Rain = 0
KMC4 081922Z 32010KT 05/03 A303 RMK A01 T00460029  RH  088%=      5-min Rain = 0
KMC4 081923Z 32011KT 05/03 A303 RMK A01 T00460028  RH  088%=      5-min Rain = 0
KMC4 081924Z 32008KT 05/03 A303 RMK A01 T00450026  RH  088%=      5-min Rain = 0
KMC4 081925Z 32007KT 05/03 A303 RMK A01 T00450027  RH  088%=      5-min Rain = 0
KMC4 081926Z 32008KT 05/03 A3029 RMK A01 T00460029  RH  089%=      5-min Rain = 0
KMC4 081927Z 33008KT 05/03 A3029 RMK A01 T00460028  RH  088%=      5-min Rain = 0
KMC4 081928Z 32007KT 05/03 A3029 RMK A01 T00460027  RH  088%=      5-min Rain = 0
KMC4 081929Z 32009KT 05/03 A3029 RMK A01 T00460028  RH  089%=      5-min Rain = 0
KMC4 081930Z 31006KT 05/03 A3029 RMK A01 T00460027  RH  088%=      5-min Rain = 0
KMC4 081931Z 32006KT 05/03 A3029 RMK A01 T00460027  RH  088%=      5-min Rain = 0
KMC4 081932Z 31008KT 05/03 A3029 RMK A01 T00460028  RH  088%=      5-min Rain = 0
KMC4 081933Z 32006KT 05/03 A3029 RMK A01 T00460027  RH  088%=      5-min Rain = 0
KMC4 081934Z 31008KT 05/03 A3029 RMK A01 T00460028  RH  088%=      5-min Rain = 0
KMC4 081935Z 32008KT 05/03 A3029 RMK A01 T00460028  RH  088%=      5-min Rain = 0
KMC4 081936Z 34008KT 05/03 A3029 RMK A01 T00460028  RH  088%=      5-min Rain = 0
KMC4 081937Z 33008KT 05/03 A3029 RMK A01 T00450026  RH  088%=      5-min Rain = 0
KMC4 081938Z 33007KT 04/03 A3029 RMK A01 T00440025  RH  088%=      5-min Rain = 0
KMC4 081939Z 32011KT 04/03 A3029 RMK A01 T00440027  RH  089%=      5-min Rain = 0
KMC4 081940Z 32010KT 04/03 A3029 RMK A01 T00440027  RH  088%=      5-min Rain = 0
KMC4 081941Z 33009KT 04/03 A3029 RMK A01 T00440026  RH  088%=      5-min Rain = 0
KMC4 081942Z 32008KT 04/03 A3029 RMK A01 T00440027  RH  088%=      5-min Rain = 0
KMC4 081943Z 31008KT 04/03 A3029 RMK A01 T00440026  RH  088%=      5-min Rain = 0
KMC4 081944Z 31010KT 04/03 A3029 RMK A01 T00440026  RH  088%=      5-min Rain = 0
KMC4 081945Z 32011KT 04/03 A3029 RMK A01 T00440026  RH  088%=      5-min Rain = 0
KMC4 081946Z 32008KT 04/03 A3029 RMK A01 T00440026  RH  088%=      5-min Rain = 0
KMC4 081947Z 32008KT 04/03 A3029 RMK A01 T00440027  RH  088%=      5-min Rain = 0
KMC4 081948Z 31008KT 04/03 A3029 RMK A01 T00440027  RH  088%=      5-min Rain = 0
KMC4 081949Z 32007KT 04/03 A3029 RMK A01 T00440027  RH  089%=      5-min Rain = 0
KMC4 081950Z 31009KT 04/03 A3029 RMK A01 T00440027  RH  089%=      5-min Rain = 0
KMC4 081951Z 31010KT 04/03 A3029 RMK A01 T00440026  RH  088%=      5-min Rain = 0
KMC4 081952Z 32012KT 05/03 A3029 RMK A01 T00450026  RH  088%=      5-min Rain = 0
KMC4 081953Z 32009KT 04/03 A3029 RMK A01 T00440025  RH  088%=      5-min Rain = 0
KMC4 081954Z 32009KT 04/02 A3029 RMK A01 T00430024  RH  087%=      5-min Rain = 0
KMC4 081955Z 32009KT 04/02 A3029 RMK A01 T00430024  RH  088%=      5-min Rain = 0
KMC4 081956Z 32008KT 04/02 A3029 RMK A01 T00430024  RH  088%=      5-min Rain = 0
KMC4 081957Z 32008KT 04/03 A3029 RMK A01 T00430026  RH  088%=      5-min Rain = 0
KMC4 081958Z 33009KT 04/03 A3029 RMK A01 T00440025  RH  088%=      5-min Rain = 0
KMC4 081959Z 33010KT 04/03 A3029 RMK A01 T00440025  RH  088%=      5-min Rain = 0
KMC4 082000Z 33009KT 04/02 A3029 RMK A01 T00440024  RH  087%=      5-min Rain = 0
KMC4 082001Z 33009KT 04/02 A3029 RMK A01 T00440024  RH  087%=      5-min Rain = 0
KMC4 082002Z 32006KT 04/03 A3029 RMK A01 T00440025  RH  088%=      5-min Rain = 0
KMC4 082003Z 32007KT 04/03 A3029 RMK A01 T00440026  RH  088%=      5-min Rain = 0
KMC4 082004Z 32008KT 05/03 A3029 RMK A01 T00450027  RH  088%=      5-min Rain = 0
KMC4 082005Z 33008KT 05/03 A3029 RMK A01 T00450026  RH  087%=      5-min Rain = 0
KMC4 082006Z 33009KT 05/03 A3028 RMK A01 T00450026  RH  087%=      5-min Rain = 0
KMC4 082007Z 32009KT 05/02 A3028 RMK A01 T00450024  RH  086%=      5-min Rain = 0
KMC4 082008Z 33009KT 05/02 A3028 RMK A01 T00450024  RH  086%=      5-min Rain = 0
KMC4 082009Z 32009KT 05/03 A3028 RMK A01 T00450025  RH  087%=      5-min Rain = 0
KMC4 082010Z 31009KT 05/03 A3028 RMK A01 T00450025  RH  087%=      5-min Rain = 0
KMC4 082011Z 30010KT 05/03 A3028 RMK A01 T00450025  RH  087%=      5-min Rain = 0
KMC4 082012Z 30011KT 04/02 A3028 RMK A01 T00440023  RH  086%=      5-min Rain = 0
KMC4 082013Z 31009KT 04/02 A3028 RMK A01 T00430022  RH  086%=      5-min Rain = 0
KMC4 082014Z 30008KT 04/02 A3028 RMK A01 T00430024  RH  087%=      5-min Rain = 0
KMC4 082015Z 31009KT 04/02 A3028 RMK A01 T00440024  RH  087%=      5-min Rain = 0
KMC4 082016Z 31008KT 04/02 A3028 RMK A01 T00440024  RH  087%=      5-min Rain = 0
KMC4 082017Z 31008KT 05/03 A3028 RMK A01 T00450026  RH  088%=      5-min Rain = 0
KMC4 082018Z 31008KT 05/03 A3028 RMK A01 T00460026  RH  087%=      5-min Rain = 0
KMC4 082019Z 30010KT 05/03 A3028 RMK A01 T00460027  RH  087%=      5-min Rain = 0
KMC4 082020Z 31010KT 05/03 A3028 RMK A01 T00470026  RH  087%=      5-min Rain = 0
KMC4 082021Z 30009KT 05/03 A3028 RMK A01 T00470026  RH  086%=      5-min Rain = 0
KMC4 082022Z 30009KT 05/03 A3028 RMK A01 T00470025  RH  086%=      5-min Rain = 0
KMC4 082023Z 33008KT 05/03 A3028 RMK A01 T00470026  RH  087%=      5-min Rain = 0
KMC4 082024Z 32007KT 05/03 A3028 RMK A01 T00480028  RH  087%=      5-min Rain = 0
KMC4 082025Z 33009KT 05/03 A3028 RMK A01 T00480027  RH  086%=      5-min Rain = 0
KMC4 082026Z 32010KT 05/02 A3028 RMK A01 T00480024  RH  085%=      5-min Rain = 0
KMC4 082027Z 32008KT 05/02 A3028 RMK A01 T00480024  RH  085%=      5-min Rain = 0
KMC4 082028Z 31006KT 05/03 A3028 RMK A01 T00480026  RH  086%=      5-min Rain = 0
KMC4 082029Z 32009KT 05/03 A3028 RMK A01 T00490028  RH  086%=      5-min Rain = 0
KMC4 082030Z 31010KT 05/03 A3028 RMK A01 T00500026  RH  085%=      5-min Rain = 0
KMC4 082031Z 31010KT 05/02 A3028 RMK A01 T00480023  RH  084%=      5-min Rain = 0
KMC4 082032Z 31010KT 05/02 A3028 RMK A01 T00480023  RH  084%=      5-min Rain = 0
KMC4 082033Z 32008KT 05/02 A3028 RMK A01 T00480024  RH  085%=      5-min Rain = 0
KMC4 082034Z 31009KT 05/03 A3028 RMK A01 T00480025  RH  085%=      5-min Rain = 0
KMC4 082035Z 31009KT 05/02 A3027 RMK A01 T00480023  RH  084%=      5-min Rain = 0
KMC4 082036Z 31009KT 05/02 A3027 RMK A01 T00480024  RH  084%=      5-min Rain = 0
KMC4 082037Z 31010KT 05/03 A3028 RMK A01 T00490025  RH  085%=      5-min Rain = 0
KMC4 082038Z 31008KT 05/02 A3028 RMK A01 T00490024  RH  084%=      5-min Rain = 0
KMC4 082039Z 31007KT 05/02 A3028 RMK A01 T00490024  RH  084%=      5-min Rain = 0
KMC4 082040Z 31009KT 05/03 A3028 RMK A01 T00500026  RH  084%=      5-min Rain = 0
KMC4 082041Z 31010KT 05/03 A3027 RMK A01 T00510026  RH  084%=      5-min Rain = 0
KMC4 082042Z 32010KT 05/03 A3027 RMK A01 T00520028  RH  084%=      5-min Rain = 0
KMC4 082043Z 30011KT 05/03 A3028 RMK A01 T00520027  RH  084%=      5-min Rain = 0
KMC4 082044Z 31009KT 05/02 A3028 RMK A01 T00510024  RH  083%=      5-min Rain = 0
KMC4 082045Z 31009KT 05/02 A3028 RMK A01 T00500024  RH  083%=      5-min Rain = 0
KMC4 082046Z 30009KT 05/03 A3028 RMK A01 T00500025  RH  084%=      5-min Rain = 0
KMC4 082047Z 30010KT 05/02 A3028 RMK A01 T00500024  RH  083%=      5-min Rain = 0
KMC4 082048Z 29010KT 05/02 A3028 RMK A01 T00510023  RH  082%=      5-min Rain = 0
KMC4 082049Z 30010KT 05/03 A3027 RMK A01 T00520026  RH  083%=      5-min Rain = 0
KMC4 082050Z 31010KT 05/03 A3028 RMK A01 T00530026  RH  083%=      5-min Rain = 0
KMC4 082051Z 30011KT 05/03 A3028 RMK A01 T00530027  RH  083%=      5-min Rain = 0
KMC4 082052Z 31011KT 05/03 A3028 RMK A01 T00530027  RH  083%=      5-min Rain = 0
KMC4 082053Z 30013KT 05/03 A3028 RMK A01 T00530025  RH  082%=      5-min Rain = 0
KMC4 082054Z 29011KT 05/02 A3028 RMK A01 T00520024  RH  082%=      5-min Rain = 0
KMC4 082055Z 30011KT 05/03 A3028 RMK A01 T00520025  RH  083%=      5-min Rain = 0
KMC4 082056Z 30007KT 05/02 A3028 RMK A01 T00510024  RH  083%=      5-min Rain = 0
KMC4 082057Z 29011KT 05/03 A3028 RMK A01 T00520027  RH  084%=      5-min Rain = 0
KMC4 082058Z 31009KT 05/03 A3028 RMK A01 T00520027  RH  084%=      5-min Rain = 0
KMC4 082059Z 30011KT 05/03 A3028 RMK A01 T00530028  RH  084%=      5-min Rain = 0
KMC4 082100Z 31009KT 05/03 A3028 RMK A01 T00530025  RH  082%=      5-min Rain = 0
KMC4 082101Z 30009KT 05/03 A3028 RMK A01 T00520025  RH  083%=      5-min Rain = 0
KMC4 082102Z 31010KT 05/03 A3028 RMK A01 T00520026  RH  083%=      5-min Rain = 0
KMC4 082103Z 30009KT 05/03 A3028 RMK A01 T00520026  RH  083%=      5-min Rain = 0
KMC4 082104Z 29010KT 05/03 A3028 RMK A01 T00530026  RH  083%=      5-min Rain = 0
KMC4 082105Z 30010KT 05/03 A3028 RMK A01 T00520025  RH  083%=      5-min Rain = 0
KMC4 082106Z 30011KT 05/03 A3028 RMK A01 T00520026  RH  083%=      5-min Rain = 0
KMC4 082107Z 31013KT 05/03 A3028 RMK A01 T00520025  RH  083%=      5-min Rain = 0
KMC4 082108Z 31012KT 05/02 A3028 RMK A01 T00510024  RH  082%=      5-min Rain = 0
KMC4 082109Z 31012KT 05/02 A3028 RMK A01 T00500024  RH  083%=      5-min Rain = 0
KMC4 082110Z 30012KT 05/02 A3028 RMK A01 T00510023  RH  082%=      5-min Rain = 0
KMC4 082111Z 30010KT 05/02 A3028 RMK A01 T00510022  RH  082%=      5-min Rain = 0
KMC4 082112Z 31008G13KT 05/02 A3028 RMK A01 T00510024  RH  083%=      5-min Rain = 0
KMC4 082113Z 30010KT 05/03 A3028 RMK A01 T00510025  RH  083%=      5-min Rain = 0
KMC4 082114Z 29012KT 05/02 A3028 RMK A01 T00520024  RH  082%=      5-min Rain = 0
KMC4 082115Z 29012KT 05/02 A3028 RMK A01 T00510024  RH  082%=      5-min Rain = 0
KMC4 082116Z 30011KT 05/02 A3028 RMK A01 T00510024  RH  083%=      5-min Rain = 0
KMC4 082117Z 31012KT 05/02 A3028 RMK A01 T00510024  RH  083%=      5-min Rain = 0
KMC4 082118Z 30010KT 05/02 A3028 RMK A01 T00500023  RH  083%=      5-min Rain = 0
KMC4 082119Z 30011KT 05/02 A3028 RMK A01 T00510024  RH  083%=      5-min Rain = 0
KMC4 082120Z 30010KT 05/02 A3028 RMK A01 T00510024  RH  083%=      5-min Rain = 0
KMC4 082121Z 29012KT 05/03 A3028 RMK A01 T00500025  RH  084%=      5-min Rain = 0
KMC4 082122Z 29011KT 05/02 A3028 RMK A01 T00500024  RH  083%=      5-min Rain = 0
KMC4 082123Z 30009KT 05/03 A3028 RMK A01 T00500025  RH  084%=      5-min Rain = 0
KMC4 082124Z 30012KT 05/03 A3028 RMK A01 T00500026  RH  084%=      5-min Rain = 0
KMC4 082125Z 31011KT 05/02 A3028 RMK A01 T00510024  RH  083%=      5-min Rain = 0
KMC4 082126Z 31010KT 05/02 A3028 RMK A01 T00500023  RH  083%=      5-min Rain = 0
KMC4 082127Z 31009KT 05/02 A3028 RMK A01 T00490023  RH  083%=      5-min Rain = 0
KMC4 082128Z 30006KT 05/02 A3028 RMK A01 T00490024  RH  084%=      5-min Rain = 0
KMC4 082129Z 30008KT 05/03 A3028 RMK A01 T00500027  RH  085%=      5-min Rain = 0
KMC4 082130Z 29010KT 05/03 A3028 RMK A01 T00510027  RH  084%=      5-min Rain = 0
KMC4 082131Z 30010KT 05/03 A3028 RMK A01 T00510025  RH  084%=      5-min Rain = 0
KMC4 082132Z 29011KT 05/02 A3028 RMK A01 T00500023  RH  083%=      5-min Rain = 0
KMC4 082133Z 29010KT 05/02 A3028 RMK A01 T00500022  RH  082%=      5-min Rain = 0
KMC4 082134Z 30008KT 05/02 A3028 RMK A01 T00500023  RH  083%=      5-min Rain = 0
KMC4 082135Z 30010KT 05/02 A3028 RMK A01 T00500024  RH  083%=      5-min Rain = 0
KMC4 082136Z 31009KT 05/02 A3028 RMK A01 T00500022  RH  083%=      5-min Rain = 0
KMC4 082137Z 31009KT 05/02 A3028 RMK A01 T00500023  RH  083%=      5-min Rain = 0
KMC4 082138Z 30008KT 05/02 A3028 RMK A01 T00510024  RH  083%=      5-min Rain = 0
KMC4 082139Z 30011KT 05/02 A3028 RMK A01 T00500023  RH  082%=      5-min Rain = 0
KMC4 082140Z 30010KT 05/02 A3028 RMK A01 T00500022  RH  082%=      5-min Rain = 0
KMC4 082141Z 29009KT 05/02 A3028 RMK A01 T00500023  RH  082%=      5-min Rain = 0
KMC4 082142Z 30011KT 05/02 A3028 RMK A01 T00500023  RH  083%=      5-min Rain = 0
KMC4 082143Z 31010KT 05/02 A3028 RMK A01 T00500022  RH  082%=      5-min Rain = 0
KMC4 082144Z 30011KT 05/02 A3028 RMK A01 T00500022  RH  082%=      5-min Rain = 0
KMC4 082145Z 30010KT 05/02 A3028 RMK A01 T00500021  RH  082%=      5-min Rain = 0
KMC4 082146Z 30009KT 05/02 A3028 RMK A01 T00500022  RH  082%=      5-min Rain = 0
KMC4 082147Z 30010KT 05/02 A3028 RMK A01 T00500022  RH  082%=      5-min Rain = 0
KMC4 082148Z 30008KT 05/02 A3028 RMK A01 T00500022  RH  082%=      5-min Rain = 0
KMC4 082149Z 30007KT 05/02 A3028 RMK A01 T00500024  RH  083%=      5-min Rain = 0
KMC4 082150Z 32007KT 05/03 A3028 RMK A01 T00510026  RH  084%=      5-min Rain = 0
KMC4 082151Z 31009KT 05/03 A3028 RMK A01 T00510025  RH  083%=      5-min Rain = 0
KMC4 082152Z 30009KT 05/02 A3028 RMK A01 T00510023  RH  082%=      5-min Rain = 0
KMC4 082153Z 30008KT 05/02 A3028 RMK A01 T00510023  RH  082%=      5-min Rain = 0
KMC4 082154Z 30008KT 05/02 A3028 RMK A01 T00510023  RH  082%=      5-min Rain = 0
KMC4 082155Z 31006KT 05/02 A3028 RMK A01 T00510024  RH  083%=      5-min Rain = 0
KMC4 082156Z 31006KT 05/02 A3028 RMK A01 T00510024  RH  083%=      5-min Rain = 0
KMC4 082157Z 30009KT 05/03 A3028 RMK A01 T00510025  RH  083%=      5-min Rain = 0
KMC4 082158Z 30009KT 05/02 A3028 RMK A01 T00510023  RH  082%=      5-min Rain = 0
KMC4 082159Z 29009KT 05/02 A3028 RMK A01 T00510023  RH  082%=      5-min Rain = 0
KMC4 082200Z 29009KT 05/02 A3028 RMK A01 T00510023  RH  082%=      5-min Rain = 0
KMC4 082201Z 30010KT 05/02 A3028 RMK A01 T00510023  RH  082%=      5-min Rain = 0
KMC4 082202Z 30009KT 05/02 A3028 RMK A01 T00510022  RH  082%=      5-min Rain = 0
KMC4 082203Z 30008KT 05/02 A3028 RMK A01 T00510022  RH  082%=      5-min Rain = 0
KMC4 082204Z 30007KT 05/02 A3028 RMK A01 T00510022  RH  082%=      5-min Rain = 0
KMC4 082205Z 30009KT 05/02 A3028 RMK A01 T00510022  RH  082%=      5-min Rain = 0
KMC4 082206Z 30008KT 05/02 A3028 RMK A01 T00500021  RH  081%=      5-min Rain = 0
KMC4 082207Z 30009KT 05/02 A3028 RMK A01 T00500022  RH  082%=      5-min Rain = 0
KMC4 082208Z 31010KT 05/02 A3028 RMK A01 T00500022  RH  082%=      5-min Rain = 0
KMC4 082209Z 32008KT 05/02 A3028 RMK A01 T00500023  RH  082%=      5-min Rain = 0
KMC4 082210Z 32007KT 05/02 A3028 RMK A01 T00510023  RH  083%=      5-min Rain = 0
KMC4 082211Z 31007KT 05/02 A3028 RMK A01 T00510024  RH  083%=      5-min Rain = 0
KMC4 082212Z 32008KT 05/02 A3028 RMK A01 T00510024  RH  082%=      5-min Rain = 0
KMC4 082213Z 32008KT 05/02 A3028 RMK A01 T00510023  RH  082%=      5-min Rain = 0
KMC4 082214Z 32006KT 05/02 A3028 RMK A01 T00510023  RH  082%=      5-min Rain = 0
KMC4 082215Z 30007KT 05/02 A3028 RMK A01 T00520024  RH  083%=      5-min Rain = 0
KMC4 082216Z 31007KT 05/02 A3028 RMK A01 T00510024  RH  082%=      5-min Rain = 0
KMC4 082217Z 30007KT 05/02 A3028 RMK A01 T00510024  RH  082%=      5-min Rain = 0
KMC4 082218Z 29007KT 05/02 A3028 RMK A01 T00510024  RH  083%=      5-min Rain = 0
KMC4 082219Z 29008KT 05/02 A3028 RMK A01 T00510024  RH  082%=      5-min Rain = 0
KMC4 082220Z 29008KT 05/02 A3028 RMK A01 T00510023  RH  082%=      5-min Rain = 0
KMC4 082221Z 29008KT 05/02 A3028 RMK A01 T00510023  RH  082%=      5-min Rain = 0
KMC4 082222Z 30008KT 05/02 A3028 RMK A01 T00510023  RH  082%=      5-min Rain = 0
KMC4 082223Z 30008KT 05/02 A3028 RMK A01 T00510024  RH  083%=      5-min Rain = 0
KMC4 082224Z 30008KT 05/02 A3028 RMK A01 T00510024  RH  083%=      5-min Rain = 0
KMC4 082225Z 30008KT 05/02 A3028 RMK A01 T00510023  RH  082%=      5-min Rain = 0
KMC4 082226Z 29007KT 05/02 A3028 RMK A01 T00510023  RH  082%=      5-min Rain = 0
KMC4 082227Z 30007KT 05/02 A3028 RMK A01 T00510024  RH  083%=      5-min Rain = 0
KMC4 082228Z 30007KT 05/02 A3028 RMK A01 T00510023  RH  082%=      5-min Rain = 0
KMC4 082229Z 31007KT 05/02 A3028 RMK A01 T00510022  RH  082%=      5-min Rain = 0
KMC4 082230Z 30007KT 05/02 A3028 RMK A01 T00510023  RH  082%=      5-min Rain = 0
KMC4 082231Z 31007KT 05/02 A3028 RMK A01 T00510024  RH  083%=      5-min Rain = 0
KMC4 082232Z 30006KT 05/03 A3028 RMK A01 T00510026  RH  083%=      5-min Rain = 0
KMC4 082233Z 30008KT 05/03 A3028 RMK A01 T00520025  RH  083%=      5-min Rain = 0
KMC4 082234Z 30009KT 05/02 A3028 RMK A01 T00510023  RH  082%=      5-min Rain = 0
KMC4 082235Z 30007KT 05/02 A3028 RMK A01 T00510023  RH  082%=      5-min Rain = 0
KMC4 082236Z 30009KT 05/02 A3028 RMK A01 T00510024  RH  083%=      5-min Rain = 0
KMC4 082237Z 30008KT 05/02 A3028 RMK A01 T00510024  RH  083%=      5-min Rain = 0
KMC4 082238Z 29009KT 05/02 A3028 RMK A01 T00510023  RH  082%=      5-min Rain = 0
KMC4 082239Z 29009KT 05/02 A3028 RMK A01 T00510023  RH  082%=      5-min Rain = 0
KMC4 082240Z 29009KT 05/02 A3028 RMK A01 T00510023  RH  082%=      5-min Rain = 0
KMC4 082241Z 29008KT 05/02 A3028 RMK A01 T00510024  RH  083%=      5-min Rain = 0
KMC4 082242Z 29009KT 05/02 A3028 RMK A01 T00510024  RH  083%=      5-min Rain = 0
KMC4 082243Z 29008KT 05/02 A3028 RMK A01 T00510022  RH  082%=      5-min Rain = 0
KMC4 082244Z 29007KT 05/02 A3029 RMK A01 T00510021  RH  081%=      5-min Rain = 0
KMC4 082245Z 29008KT 05/02 A3029 RMK A01 T00510021  RH  081%=      5-min Rain = 0
KMC4 082246Z 28007KT 05/02 A3029 RMK A01 T00510022  RH  082%=      5-min Rain = 0
KMC4 082247Z 29008KT 05/02 A3029 RMK A01 T00510024  RH  083%=      5-min Rain = 0
KMC4 082248Z 28007KT 05/02 A3029 RMK A01 T00510023  RH  082%=      5-min Rain = 0
KMC4 082249Z 27008KT 05/02 A3029 RMK A01 T00510024  RH  083%=      5-min Rain = 0
KMC4 082250Z 27008KT 05/02 A3029 RMK A01 T00510023  RH  082%=      5-min Rain = 0
KMC4 082251Z 28007KT 05/02 A3029 RMK A01 T00510024  RH  083%=      5-min Rain = 0
KMC4 082252Z 29007KT 05/03 A3029 RMK A01 T00510025  RH  083%=      5-min Rain = 0
KMC4 082253Z 29007KT 05/02 A3029 RMK A01 T00510024  RH  082%=      5-min Rain = 0
KMC4 082254Z 29006KT 05/02 A3029 RMK A01 T00520024  RH  082%=      5-min Rain = 0
KMC4 082255Z 29007KT 05/02 A3029 RMK A01 T00510024  RH  083%=      5-min Rain = 0
KMC4 082256Z 29009KT 05/02 A3029 RMK A01 T00510023  RH  082%=      5-min Rain = 0
KMC4 082257Z 30006KT 05/02 A3029 RMK A01 T00510023  RH  082%=      5-min Rain = 0
KMC4 082258Z 29006KT 05/02 A3029 RMK A01 T00510024  RH  082%=      5-min Rain = 0
KMC4 082259Z 29006KT 05/02 A3029 RMK A01 T00510024  RH  083%=      5-min Rain = 0
KMC4 082300Z 28006KT 05/02 A3029 RMK A01 T00510024  RH  083%=      5-min Rain = 0
KMC4 082301Z 29009KT 05/02 A3029 RMK A01 T00520024  RH  083%=      5-min Rain = 0
KMC4 082302Z 28008KT 05/02 A3029 RMK A01 T00510024  RH  082%=      5-min Rain = 0
KMC4 082303Z 28008KT 05/02 A3028 RMK A01 T00510024  RH  083%=      5-min Rain = 0
KMC4 082304Z 28007KT 05/02 A3028 RMK A01 T00510024  RH  083%=      5-min Rain = 0
KMC4 082305Z 28007KT 05/02 A3028 RMK A01 T00510023  RH  082%=      5-min Rain = 0
KMC4 082306Z 28006KT 05/02 A3028 RMK A01 T00510024  RH  083%=      5-min Rain = 0
KMC4 082307Z 29006KT 05/03 A3028 RMK A01 T00510025  RH  084%=      5-min Rain = 0
KMC4 082308Z 30007KT 05/03 A3028 RMK A01 T00510025  RH  083%=      5-min Rain = 0
KMC4 082309Z 29006KT 05/02 A3028 RMK A01 T00510024  RH  083%=      5-min Rain = 0
KMC4 082310Z 29006KT 05/02 A3029 RMK A01 T00510024  RH  083%=      5-min Rain = 0
KMC4 082311Z 30005KT 05/03 A3029 RMK A01 T00510025  RH  083%=      5-min Rain = 0
KMC4 082312Z 30005KT 05/03 A3029 RMK A01 T00510026  RH  084%=      5-min Rain = 0
KMC4 082313Z 29005KT 05/03 A3029 RMK A01 T00510026  RH  084%=      5-min Rain = 0
KMC4 082314Z 30008KT 05/03 A3029 RMK A01 T00510025  RH  083%=      5-min Rain = 0
KMC4 082315Z 29007KT 05/02 A3029 RMK A01 T00510024  RH  083%=      5-min Rain = 0
KMC4 082316Z 29008KT 05/02 A3029 RMK A01 T00510024  RH  083%=      5-min Rain = 0
KMC4 082317Z 29007KT 05/03 A3029 RMK A01 T00510025  RH  083%=      5-min Rain = 0
KMC4 082318Z 29007KT 05/02 A3029 RMK A01 T00510024  RH  083%=      5-min Rain = 0
KMC4 082319Z 28006KT 05/02 A3029 RMK A01 T00510024  RH  083%=      5-min Rain = 0
KMC4 082320Z 28008KT 05/03 A3029 RMK A01 T00510025  RH  083%=      5-min Rain = 0
KMC4 082321Z 28007KT 05/02 A3029 RMK A01 T00510024  RH  083%=      5-min Rain = 0
KMC4 082322Z 28008KT 05/02 A3029 RMK A01 T00510024  RH  083%=      5-min Rain = 0
KMC4 082323Z 28007KT 05/02 A3029 RMK A01 T00510024  RH  083%=      5-min Rain = 0
KMC4 082324Z 28007KT 05/03 A3029 RMK A01 T00510026  RH  084%=      5-min Rain = 0
KMC4 082325Z 28007KT 05/03 A3029 RMK A01 T00510025  RH  083%=      5-min Rain = 0
KMC4 082326Z 29007KT 05/02 A3029 RMK A01 T00520024  RH  083%=      5-min Rain = 0
KMC4 082327Z 29006KT 05/02 A3029 RMK A01 T00520024  RH  082%=      5-min Rain = 0
KMC4 082328Z 29007KT 05/03 A3029 RMK A01 T00520025  RH  083%=      5-min Rain = 0
KMC4 082329Z 30007KT 05/02 A3029 RMK A01 T00510024  RH  082%=      5-min Rain = 0
KMC4 082330Z 29005KT 05/03 A3029 RMK A01 T00510025  RH  083%=      5-min Rain = 0
KMC4 082331Z 29006KT 05/03 A3029 RMK A01 T00510025  RH  083%=      5-min Rain = 0
KMC4 082332Z 28006KT 05/03 A3029 RMK A01 T00510026  RH  084%=      5-min Rain = 0
KMC4 082333Z 28006KT 05/03 A3029 RMK A01 T00510026  RH  084%=      5-min Rain = 0
KMC4 082334Z 28008KT 05/03 A3029 RMK A01 T00510027  RH  084%=      5-min Rain = 0
KMC4 082335Z 28006KT 05/03 A3029 RMK A01 T00510026  RH  084%=      5-min Rain = 0
KMC4 082336Z 28006KT 05/03 A3029 RMK A01 T00510026  RH  084%=      5-min Rain = 0
KMC4 082337Z 28007KT 05/03 A3029 RMK A01 T00510027  RH  084%=      5-min Rain = 0
KMC4 082338Z 28006KT 05/03 A3029 RMK A01 T00510027  RH  084%=      5-min Rain = 0
KMC4 082339Z 29006KT 05/03 A3029 RMK A01 T00510027  RH  084%=      5-min Rain = 0
KMC4 082340Z 29006KT 05/03 A3029 RMK A01 T00510026  RH  084%=      5-min Rain = 0
KMC4 082341Z 29007KT 05/03 A3029 RMK A01 T00510026  RH  084%=      5-min Rain = 0
KMC4 082342Z 29006KT 05/03 A3029 RMK A01 T00510026  RH  084%=      5-min Rain = 0
KMC4 082343Z 29007KT 05/03 A3029 RMK A01 T00510026  RH  084%=      5-min Rain = 0
KMC4 082344Z 29005KT 05/03 A3029 RMK A01 T00510025  RH  083%=      5-min Rain = 0
KMC4 082345Z 28006KT 05/03 A3029 RMK A01 T00510026  RH  084%=      5-min Rain = 0
KMC4 082346Z 28007KT 05/03 A3029 RMK A01 T00510025  RH  084%=      5-min Rain = 0
KMC4 082347Z 28006KT 05/03 A3029 RMK A01 T00510025  RH  083%=      5-min Rain = 0
KMC4 082348Z 28007KT 05/03 A3029 RMK A01 T00520026  RH  084%=      5-min Rain = 0
KMC4 082349Z 29006KT 05/03 A3029 RMK A01 T00510025  RH  083%=      5-min Rain = 0
KMC4 082350Z 29006KT 05/03 A3029 RMK A01 T00520027  RH  084%=      5-min Rain = 0
KMC4 082351Z 29007KT 05/03 A3029 RMK A01 T00510026  RH  084%=      5-min Rain = 0
KMC4 082352Z 29007KT 05/03 A3029 RMK A01 T00510025  RH  083%=      5-min Rain = 0
KMC4 082353Z 29006KT 05/02 A3029 RMK A01 T00510024  RH  083%=      5-min Rain = 0
KMC4 082354Z 30006KT 05/03 A3029 RMK A01 T00510025  RH  083%=      5-min Rain = 0
KMC4 082355Z 30005KT 05/03 A3029 RMK A01 T00510025  RH  083%=      5-min Rain = 0
KMC4 082356Z 29005KT 05/03 A3029 RMK A01 T00510026  RH  084%=      5-min Rain = 0
KMC4 082357Z 29006KT 05/03 A3029 RMK A01 T00510026  RH  084%=      5-min Rain = 0
KMC4 082358Z 29006KT 05/03 A3029 RMK A01 T00510026  RH  084%=      5-min Rain = 0
KMC4 082359Z 29006KT 05/03 A3029 RMK A01 T00510026  RH  084%=      5-min Rain = 0
KMC4 090000Z 29007KT 05/03 A3029 RMK A01 T00510026  RH  084%=      5-min Rain = 0
KMC4 090001Z 30008KT 05/03 A3029 RMK A01 T00510025  RH  083%=      5-min Rain = 0
KMC4 090002Z 31007KT 05/02 A3029 RMK A01 T00510024  RH  083%=      5-min Rain = 0
KMC4 090003Z 30007KT 05/02 A3029 RMK A01 T00510023  RH  082%=      5-min Rain = 0
KMC4 090004Z 30008KT 05/02 A3028 RMK A01 T00510023  RH  082%=      5-min Rain = 0
KMC4 090005Z 31007KT 05/02 A3028 RMK A01 T00510021  RH  081%=      5-min Rain = 0
KMC4 090006Z 32006KT 05/02 A3028 RMK A01 T00510021  RH  081%=      5-min Rain = 0
KMC4 090007Z 32007KT 05/02 A3028 RMK A01 T00510022  RH  082%=      5-min Rain = 0
KMC4 090008Z 33006KT 05/02 A3028 RMK A01 T00520023  RH  082%=      5-min Rain = 0
KMC4 090009Z 33006KT 05/02 A3028 RMK A01 T00510022  RH  081%=      5-min Rain = 0
KMC4 090010Z 32007KT 05/02 A3028 RMK A01 T00510020  RH  080%=      5-min Rain = 0
KMC4 090011Z 32006KT 05/02 A3028 RMK A01 T00510019  RH  080%=      5-min Rain = 0
KMC4 090012Z 32006KT 05/02 A3028 RMK A01 T00510020  RH  080%=      5-min Rain = 0
KMC4 090013Z 32005KT 05/02 A3028 RMK A01 T00510020  RH  080%=      5-min Rain = 0
KMC4 090014Z 31005KT 05/02 A3028 RMK A01 T00510020  RH  080%=      5-min Rain = 0
KMC4 090015Z 30005KT 05/02 A3029 RMK A01 T00510021  RH  081%=      5-min Rain = 0
KMC4 090016Z 30005KT 05/02 A3029 RMK A01 T00510021  RH  081%=      5-min Rain = 0
KMC4 090017Z 29006KT 05/02 A3029 RMK A01 T00510020  RH  080%=      5-min Rain = 0
KMC4 090018Z 29005KT 05/02 A3029 RMK A01 T00510022  RH  081%=      5-min Rain = 0
KMC4 090019Z 28007KT 05/02 A3029 RMK A01 T00510022  RH  081%=      5-min Rain = 0
KMC4 090020Z 29008KT 05/02 A303 RMK A01 T00510021  RH  081%=      5-min Rain = 0
KMC4 090021Z 29008KT 05/02 A303 RMK A01 T00520022  RH  081%=      5-min Rain = 0
KMC4 090022Z 29007KT 05/02 A303 RMK A01 T00520021  RH  081%=      5-min Rain = 0
KMC4 090023Z 29008KT 05/02 A303 RMK A01 T00520022  RH  081%=      5-min Rain = 0
KMC4 090024Z 29007KT 05/02 A303 RMK A01 T00520023  RH  081%=      5-min Rain = 0
KMC4 090025Z 29006KT 05/02 A303 RMK A01 T00520023  RH  081%=      5-min Rain = 0
KMC4 090026Z 29005KT 05/02 A303 RMK A01 T00520024  RH  082%=      5-min Rain = 0
KMC4 090027Z 29005KT 05/03 A303 RMK A01 T00530025  RH  082%=      5-min Rain = 0
KMC4 090028Z 29004KT 05/03 A303 RMK A01 T00520025  RH  083%=      5-min Rain = 0
KMC4 090029Z 29003KT 05/03 A303 RMK A01 T00520025  RH  083%=      5-min Rain = 0
KMC4 090030Z 29004KT 05/03 A303 RMK A01 T00520025  RH  083%=      5-min Rain = 0
KMC4 090031Z 28005KT 05/03 A303 RMK A01 T00520025  RH  083%=      5-min Rain = 0
KMC4 090032Z 28006KT 05/03 A303 RMK A01 T00520026  RH  083%=      5-min Rain = 0
KMC4 090033Z 29007KT 05/02 A303 RMK A01 T00520023  RH  082%=      5-min Rain = 0
KMC4 090034Z 29005KT 05/02 A303 RMK A01 T00520023  RH  082%=      5-min Rain = 0
KMC4 090035Z 29005KT 05/02 A303 RMK A01 T00520023  RH  082%=      5-min Rain = 0
KMC4 090036Z 29004KT 05/02 A303 RMK A01 T00520023  RH  082%=      5-min Rain = 0
KMC4 090037Z 30005KT 05/02 A303 RMK A01 T00520023  RH  082%=      5-min Rain = 0
KMC4 090038Z 30006KT 05/02 A303 RMK A01 T00520022  RH  081%=      5-min Rain = 0
KMC4 090039Z 30005KT 05/02 A303 RMK A01 T00520022  RH  081%=      5-min Rain = 0
KMC4 090040Z 30005KT 05/02 A303 RMK A01 T00520022  RH  081%=      5-min Rain = 0
KMC4 090041Z 29005KT 05/02 A303 RMK A01 T00520022  RH  081%=      5-min Rain = 0
KMC4 090042Z 30005KT 05/02 A303 RMK A01 T00520022  RH  081%=      5-min Rain = 0
KMC4 090043Z 30005KT 05/02 A303 RMK A01 T00520022  RH  081%=      5-min Rain = 0
KMC4 090044Z 31005KT 05/02 A303 RMK A01 T00520022  RH  081%=      5-min Rain = 0
KMC4 090045Z 32006KT 05/02 A303 RMK A01 T00520021  RH  081%=      5-min Rain = 0
KMC4 090046Z 31005KT 05/02 A303 RMK A01 T00520020  RH  080%=      5-min Rain = 0
KMC4 090047Z 31006KT 05/02 A303 RMK A01 T00520019  RH  080%=      5-min Rain = 0
KMC4 090048Z 31007KT 05/02 A303 RMK A01 T00520020  RH  080%=      5-min Rain = 0
KMC4 090049Z 31009KT 05/02 A303 RMK A01 T00520017  RH  078%=      5-min Rain = 0
KMC4 090050Z 31008KT 05/02 A303 RMK A01 T00520017  RH  078%=      5-min Rain = 0
KMC4 090051Z 30008KT 05/02 A303 RMK A01 T00520017  RH  078%=      5-min Rain = 0
KMC4 090052Z 30007KT 05/02 A303 RMK A01 T00520016  RH  078%=      5-min Rain = 0
KMC4 090053Z 30008KT 05/02 A303 RMK A01 T00520016  RH  077%=      5-min Rain = 0
KMC4 090054Z 31007KT 05/02 A303 RMK A01 T00530016  RH  077%=      5-min Rain = 0
KMC4 090055Z 31007KT 05/02 A303 RMK A01 T00530017  RH  078%=      5-min Rain = 0
KMC4 090056Z 31006KT 05/02 A303 RMK A01 T00530017  RH  078%=      5-min Rain = 0
KMC4 090057Z 31007KT 05/02 A303 RMK A01 T00530018  RH  078%=      5-min Rain = 0
KMC4 090058Z 31005KT 05/02 A303 RMK A01 T00530018  RH  078%=      5-min Rain = 0
KMC4 090059Z 31004KT 05/02 A303 RMK A01 T00530019  RH  079%=      5-min Rain = 0
KMC4 090100Z 31006KT 05/02 A303 RMK A01 T00530019  RH  079%=      5-min Rain = 0
KMC4 090101Z 30005KT 05/02 A303 RMK A01 T00530019  RH  079%=      5-min Rain = 0
KMC4 090102Z 30004KT 05/02 A303 RMK A01 T00530020  RH  080%=      5-min Rain = 0
KMC4 090103Z 31005KT 05/02 A303 RMK A01 T00530020  RH  079%=      5-min Rain = 0
KMC4 090104Z 30007KT 05/02 A303 RMK A01 T00530020  RH  079%=      5-min Rain = 0
KMC4 090105Z 31006KT 05/02 A303 RMK A01 T00530019  RH  079%=      5-min Rain = 0
KMC4 090106Z 30006KT 05/02 A303 RMK A01 T00530018  RH  078%=      5-min Rain = 0
KMC4 090107Z 30005KT 05/02 A303 RMK A01 T00530018  RH  078%=      5-min Rain = 0
KMC4 090108Z 30006KT 05/02 A303 RMK A01 T00530018  RH  078%=      5-min Rain = 0
KMC4 090109Z 30006KT 05/02 A303 RMK A01 T00530018  RH  078%=      5-min Rain = 0
KMC4 090110Z 31005KT 05/02 A303 RMK A01 T00530018  RH  078%=      5-min Rain = 0
KMC4 090111Z 32004KT 05/02 A303 RMK A01 T00530019  RH  079%=      5-min Rain = 0
KMC4 090112Z 30007KT 05/02 A303 RMK A01 T00530020  RH  079%=      5-min Rain = 0
KMC4 090113Z 31007KT 05/02 A303 RMK A01 T00530017  RH  078%=      5-min Rain = 0
KMC4 090114Z 30007KT 05/02 A303 RMK A01 T00530017  RH  077%=      5-min Rain = 0
KMC4 090115Z 31006KT 05/02 A303 RMK A01 T00530017  RH  077%=      5-min Rain = 0
KMC4 090116Z 30006KT 05/02 A303 RMK A01 T00530018  RH  078%=      5-min Rain = 0
KMC4 090117Z 30005KT 05/02 A303 RMK A01 T00530018  RH  078%=      5-min Rain = 0
KMC4 090118Z 30005KT 05/02 A3031 RMK A01 T00530020  RH  079%=      5-min Rain = 0
KMC4 090119Z 30005KT 05/02 A3031 RMK A01 T00530020  RH  079%=      5-min Rain = 0
KMC4 090120Z 29006KT 05/02 A3031 RMK A01 T00530019  RH  079%=      5-min Rain = 0
KMC4 090121Z 30005KT 05/02 A3031 RMK A01 T00530019  RH  079%=      5-min Rain = 0
KMC4 090122Z 30005KT 05/02 A3031 RMK A01 T00530020  RH  079%=      5-min Rain = 0
KMC4 090123Z 30006KT 05/02 A3031 RMK A01 T00530020  RH  079%=      5-min Rain = 0
KMC4 090124Z 30005KT 05/02 A3031 RMK A01 T00530019  RH  079%=      5-min Rain = 0
KMC4 090125Z 30005KT 05/02 A3031 RMK A01 T00530019  RH  079%=      5-min Rain = 0
KMC4 090126Z 31005KT 05/02 A3031 RMK A01 T00530018  RH  078%=      5-min Rain = 0
KMC4 090127Z 31004KT 05/02 A3031 RMK A01 T00530018  RH  078%=      5-min Rain = 0
KMC4 090128Z 30004KT 05/02 A3031 RMK A01 T00530020  RH  079%=      5-min Rain = 0
KMC4 090129Z 30004KT 05/02 A3031 RMK A01 T00530021  RH  080%=      5-min Rain = 0
KMC4 090130Z 29004KT 05/02 A3031 RMK A01 T00530020  RH  079%=      5-min Rain = 0
KMC4 090131Z 30004KT 05/02 A3031 RMK A01 T00530021  RH  080%=      5-min Rain = 0
KMC4 090132Z 30003KT 05/02 A3031 RMK A01 T00530021  RH  080%=      5-min Rain = 0
KMC4 090133Z 30004KT 05/02 A3031 RMK A01 T00530022  RH  080%=      5-min Rain = 0
KMC4 090134Z 29004KT 05/02 A3031 RMK A01 T00530021  RH  080%=      5-min Rain = 0
KMC4 090135Z 29004KT 05/02 A3031 RMK A01 T00530020  RH  080%=      5-min Rain = 0
KMC4 090136Z 29003KT 05/02 A3031 RMK A01 T00530021  RH  080%=      5-min Rain = 0
KMC4 090137Z 29004KT 05/02 A3031 RMK A01 T00530023  RH  081%=      5-min Rain = 0
KMC4 090138Z 30004KT 05/02 A3031 RMK A01 T00530023  RH  081%=      5-min Rain = 0
KMC4 090139Z 30005KT 05/02 A3031 RMK A01 T00530021  RH  080%=      5-min Rain = 0
KMC4 090140Z 29005KT 05/02 A3031 RMK A01 T00530019  RH  079%=      5-min Rain = 0
KMC4 090141Z 30004KT 05/02 A3031 RMK A01 T00530019  RH  079%=      5-min Rain = 0
KMC4 090142Z 30005KT 05/02 A3031 RMK A01 T00530019  RH  079%=      5-min Rain = 0
KMC4 090143Z 29004KT 05/02 A3031 RMK A01 T00530018  RH  078%=      5-min Rain = 0
KMC4 090144Z 29004KT 05/02 A3031 RMK A01 T00530018  RH  078%=      5-min Rain = 0
KMC4 090145Z 29005KT 05/02 A3031 RMK A01 T00530017  RH  077%=      5-min Rain = 0
KMC4 090146Z 29006KT 05/02 A3031 RMK A01 T00530015  RH  076%=      5-min Rain = 0
KMC4 090147Z 29006KT 05/02 A3031 RMK A01 T00540016  RH  076%=      5-min Rain = 0
KMC4 090148Z 29006KT 05/02 A3031 RMK A01 T00540017  RH  077%=      5-min Rain = 0
KMC4 090149Z 29005KT 05/02 A3031 RMK A01 T00540018  RH  078%=      5-min Rain = 0
KMC4 090150Z 30005KT 05/02 A3031 RMK A01 T00540019  RH  078%=      5-min Rain = 0
KMC4 090151Z 30004KT 05/02 A3031 RMK A01 T00540019  RH  078%=      5-min Rain = 0
KMC4 090152Z 29004KT 05/02 A3031 RMK A01 T00540019  RH  078%=      5-min Rain = 0
KMC4 090153Z 29004KT 05/02 A3031 RMK A01 T00530020  RH  079%=      5-min Rain = 0
KMC4 090154Z 30004KT 05/02 A3031 RMK A01 T00530021  RH  079%=      5-min Rain = 0
KMC4 090155Z 30004KT 05/02 A3031 RMK A01 T00530020  RH  079%=      5-min Rain = 0
KMC4 090156Z 29004KT 05/02 A3031 RMK A01 T00530020  RH  079%=      5-min Rain = 0
KMC4 090157Z 30004KT 05/02 A3031 RMK A01 T00530021  RH  080%=      5-min Rain = 0
KMC4 090158Z 30004KT 05/02 A3031 RMK A01 T00530021  RH  080%=      5-min Rain = 0
KMC4 090159Z 30004KT 05/02 A3031 RMK A01 T00530020  RH  080%=      5-min Rain = 0
KMC4 090200Z 30004KT 05/02 A3031 RMK A01 T00530020  RH  080%=      5-min Rain = 0
KMC4 090201Z 30005KT 05/02 A3031 RMK A01 T00530020  RH  079%=      5-min Rain = 0
KMC4 090202Z 30004KT 05/02 A3031 RMK A01 T00530020  RH  079%=      5-min Rain = 0
KMC4 090203Z 30003KT 05/02 A3031 RMK A01 T00530020  RH  079%=      5-min Rain = 0
KMC4 090204Z 31004KT 05/02 A3031 RMK A01 T00530020  RH  079%=      5-min Rain = 0
KMC4 090205Z 31004KT 05/02 A3031 RMK A01 T00530022  RH  080%=      5-min Rain = 0
KMC4 090206Z 31003KT 05/02 A3031 RMK A01 T00530022  RH  081%=      5-min Rain = 0
KMC4 090207Z 31003KT 05/02 A3031 RMK A01 T00530023  RH  081%=      5-min Rain = 0
KMC4 090208Z 31003KT 05/02 A3031 RMK A01 T00530023  RH  081%=      5-min Rain = 0
KMC4 090209Z 31003KT 05/02 A3031 RMK A01 T00530023  RH  081%=      5-min Rain = 0
KMC4 090210Z 31003KT 05/02 A3031 RMK A01 T00520022  RH  081%=      5-min Rain = 0
KMC4 090211Z 31002KT 05/02 A3031 RMK A01 T00520022  RH  081%=      5-min Rain = 0
KMC4 090212Z 30003KT 05/02 A3031 RMK A01 T00520022  RH  081%=      5-min Rain = 0
KMC4 090213Z 31003KT 05/02 A3031 RMK A01 T00520021  RH  080%=      5-min Rain = 0
KMC4 090214Z 32004KT 05/02 A3031 RMK A01 T00520020  RH  080%=      5-min Rain = 0
KMC4 090215Z 31003KT 05/02 A3031 RMK A01 T00520021  RH  080%=      5-min Rain = 0
KMC4 090216Z 32004KT 05/02 A3031 RMK A01 T00520021  RH  080%=      5-min Rain = 0
KMC4 090217Z 31003KT 05/02 A3031 RMK A01 T00520020  RH  079%=      5-min Rain = 0
KMC4 090218Z 31003KT 05/02 A3031 RMK A01 T00530021  RH  080%=      5-min Rain = 0
KMC4 090219Z 31003KT 05/02 A3031 RMK A01 T00520020  RH  080%=      5-min Rain = 0
KMC4 090220Z 30003KT 05/02 A3031 RMK A01 T00520021  RH  080%=      5-min Rain = 0
KMC4 090221Z 30003KT 05/02 A3031 RMK A01 T00520021  RH  080%=      5-min Rain = 0
KMC4 090222Z 30003KT 05/02 A3031 RMK A01 T00520021  RH  080%=      5-min Rain = 0
KMC4 090223Z 30003KT 05/02 A3031 RMK A01 T00520021  RH  080%=      5-min Rain = 0
KMC4 090224Z 30003KT 05/02 A3031 RMK A01 T00520021  RH  080%=      5-min Rain = 0
KMC4 090225Z 31003KT 05/02 A3031 RMK A01 T00520022  RH  081%=      5-min Rain = 0
KMC4 090226Z 31002KT 05/02 A3031 RMK A01 T00520022  RH  081%=      5-min Rain = 0
KMC4 090227Z 31002KT 05/02 A3031 RMK A01 T00520022  RH  081%=      5-min Rain = 0
KMC4 090228Z 31003KT 05/02 A3031 RMK A01 T00520022  RH  081%=      5-min Rain = 0
KMC4 090229Z 31003KT 05/02 A3031 RMK A01 T00520023  RH  082%=      5-min Rain = 0
KMC4 090230Z 32002KT 05/02 A3031 RMK A01 T00520023  RH  082%=      5-min Rain = 0
KMC4 090231Z 31003KT 05/02 A3031 RMK A01 T00510022  RH  082%=      5-min Rain = 0
KMC4 090232Z 31003KT 05/02 A3031 RMK A01 T00510022  RH  082%=      5-min Rain = 0
KMC4 090233Z 31002KT 05/02 A3031 RMK A01 T00510022  RH  081%=      5-min Rain = 0
KMC4 090234Z 31002KT 05/02 A3032 RMK A01 T00510022  RH  082%=      5-min Rain = 0
KMC4 090235Z 30002KT 05/02 A3032 RMK A01 T00510023  RH  082%=      5-min Rain = 0
KMC4 090236Z 30002KT 05/02 A3032 RMK A01 T00510024  RH  082%=      5-min Rain = 0
KMC4 090237Z 30002KT 05/02 A3032 RMK A01 T00510023  RH  082%=      5-min Rain = 0
KMC4 090238Z 30002KT 05/02 A3032 RMK A01 T00510022  RH  082%=      5-min Rain = 0
KMC4 090239Z 31002KT 05/02 A3032 RMK A01 T00510022  RH  081%=      5-min Rain = 0
KMC4 090240Z 31003KT 05/02 A3032 RMK A01 T00510023  RH  082%=      5-min Rain = 0
KMC4 090241Z 32002KT 05/02 A3032 RMK A01 T00510023  RH  082%=      5-min Rain = 0
KMC4 090242Z 32003KT 05/02 A3031 RMK A01 T00510023  RH  082%=      5-min Rain = 0
KMC4 090243Z 32002KT 05/02 A3031 RMK A01 T00510023  RH  082%=      5-min Rain = 0
KMC4 090244Z 33002KT 05/02 A3031 RMK A01 T00510023  RH  083%=      5-min Rain = 0
KMC4 090245Z 34002KT 05/02 A3031 RMK A01 T00500024  RH  083%=      5-min Rain = 0
KMC4 090246Z 34002KT 05/03 A3032 RMK A01 T00500025  RH  084%=      5-min Rain = 0
KMC4 090247Z 34002KT 05/03 A3032 RMK A01 T00500025  RH  084%=      5-min Rain = 0
KMC4 090248Z 33002KT 05/03 A3032 RMK A01 T00500025  RH  084%=      5-min Rain = 0
KMC4 090249Z 33002KT 05/02 A3032 RMK A01 T00500024  RH  083%=      5-min Rain = 0
KMC4 090250Z 33002KT 05/02 A3032 RMK A01 T00500023  RH  083%=      5-min Rain = 0
KMC4 090251Z 31001KT 05/02 A3032 RMK A01 T00500023  RH  083%=      5-min Rain = 0
KMC4 090252Z 31002KT 05/02 A3032 RMK A01 T00490024  RH  084%=      5-min Rain = 0
KMC4 090253Z 32002KT 05/03 A3032 RMK A01 T00500025  RH  084%=      5-min Rain = 0
KMC4 090254Z 33002KT 05/02 A3032 RMK A01 T00490024  RH  084%=      5-min Rain = 0
KMC4 090255Z 33002KT 05/02 A3032 RMK A01 T00490024  RH  084%=      5-min Rain = 0
KMC4 090256Z 34002KT 05/03 A3032 RMK A01 T00490025  RH  084%=      5-min Rain = 0
KMC4 090257Z 33002KT 05/02 A3032 RMK A01 T00490024  RH  084%=      5-min Rain = 0
KMC4 090258Z 33002KT 05/02 A3032 RMK A01 T00490024  RH  084%=      5-min Rain = 0
KMC4 090259Z 33002KT 05/02 A3032 RMK A01 T00480024  RH  084%=      5-min Rain = 0
KMC4 090300Z 34002KT 05/02 A3032 RMK A01 T00480024  RH  084%=      5-min Rain = 0
KMC4 090301Z 34002KT 05/02 A3032 RMK A01 T00480024  RH  084%=      5-min Rain = 0
KMC4 090302Z 34002KT 05/02 A3032 RMK A01 T00480023  RH  084%=      5-min Rain = 0
KMC4 090303Z 33002KT 05/02 A3032 RMK A01 T00480022  RH  083%=      5-min Rain = 0
KMC4 090304Z 33002KT 05/02 A3032 RMK A01 T00480022  RH  083%=      5-min Rain = 0
KMC4 090305Z 33002KT 05/02 A3032 RMK A01 T00480022  RH  083%=      5-min Rain = 0
KMC4 090306Z 32002KT 05/02 A3032 RMK A01 T00480022  RH  083%=      5-min Rain = 0
KMC4 090307Z 31001KT 05/02 A3032 RMK A01 T00470022  RH  084%=      5-min Rain = 0
KMC4 090308Z 31001KT 05/02 A3032 RMK A01 T00470023  RH  084%=      5-min Rain = 0
KMC4 090309Z 31001KT 05/02 A3032 RMK A01 T00470023  RH  085%=      5-min Rain = 0
KMC4 090310Z 31002KT 05/02 A3032 RMK A01 T00470023  RH  085%=      5-min Rain = 0
KMC4 090311Z 31002KT 05/02 A3032 RMK A01 T00460023  RH  085%=      5-min Rain = 0
KMC4 090312Z 31002KT 05/02 A3032 RMK A01 T00460023  RH  085%=      5-min Rain = 0
KMC4 090313Z 31002KT 05/02 A3032 RMK A01 T00450023  RH  085%=      5-min Rain = 0
KMC4 090314Z 32002KT 05/02 A3032 RMK A01 T00450022  RH  085%=      5-min Rain = 0
KMC4 090315Z 33002KT 05/02 A3032 RMK A01 T00450022  RH  086%=      5-min Rain = 0
KMC4 090316Z 33002KT 04/02 A3032 RMK A01 T00440022  RH  085%=      5-min Rain = 0
KMC4 090317Z 33002KT 04/02 A3032 RMK A01 T00440021  RH  085%=      5-min Rain = 0
KMC4 090318Z 34002KT 05/02 A3032 RMK A01 T00450021  RH  085%=      5-min Rain = 0
KMC4 090319Z 34002KT 05/02 A3032 RMK A01 T00450021  RH  084%=      5-min Rain = 0
KMC4 090320Z 34002KT 05/02 A3032 RMK A01 T00450021  RH  084%=      5-min Rain = 0
KMC4 090321Z 34002KT 05/02 A3032 RMK A01 T00460021  RH  084%=      5-min Rain = 0
KMC4 090322Z 35003KT 05/02 A3032 RMK A01 T00450021  RH  084%=      5-min Rain = 0
KMC4 090323Z 35003KT 05/02 A3032 RMK A01 T00450021  RH  084%=      5-min Rain = 0
KMC4 090324Z 35003KT 05/02 A3032 RMK A01 T00450021  RH  084%=      5-min Rain = 0
KMC4 090325Z 35003KT 05/02 A3032 RMK A01 T00450021  RH  084%=      5-min Rain = 0
KMC4 090326Z 35003KT 05/02 A3032 RMK A01 T00450021  RH  084%=      5-min Rain = 0
KMC4 090327Z 36003KT 05/02 A3032 RMK A01 T00450021  RH  084%=      5-min Rain = 0
KMC4 090328Z 00003KT 05/02 A3032 RMK A01 T00450021  RH  085%=      5-min Rain = 0
KMC4 090329Z 00003KT 04/02 A3032 RMK A01 T00440021  RH  085%=      5-min Rain = 0
KMC4 090330Z 00004KT 04/02 A3032 RMK A01 T00430021  RH  086%=      5-min Rain = 0
KMC4 090331Z 36004KT 04/02 A3032 RMK A01 T00420020  RH  086%=      5-min Rain = 0
KMC4 090332Z 36004KT 04/02 A3032 RMK A01 T00420021  RH  086%=      5-min Rain = 0
KMC4 090333Z 36004KT 04/02 A3032 RMK A01 T00420020  RH  086%=      5-min Rain = 0
KMC4 090334Z 36004KT 04/02 A3032 RMK A01 T00410020  RH  086%=      5-min Rain = 0
KMC4 090335Z 36004KT 04/02 A3032 RMK A01 T00420019  RH  085%=      5-min Rain = 0
KMC4 090336Z 36004KT 04/02 A3032 RMK A01 T00420019  RH  085%=      5-min Rain = 0
KMC4 090337Z 00004KT 04/02 A3032 RMK A01 T00430019  RH  084%=      5-min Rain = 0
KMC4 090338Z 00003KT 04/02 A3032 RMK A01 T00430019  RH  084%=      5-min Rain = 0
KMC4 090339Z 00003KT 04/02 A3032 RMK A01 T00430019  RH  084%=      5-min Rain = 0
KMC4 090340Z 01003KT 04/02 A3032 RMK A01 T00430019  RH  084%=      5-min Rain = 0
KMC4 090341Z 01002KT 04/02 A3032 RMK A01 T00440019  RH  084%=      5-min Rain = 0
KMC4 090342Z 01002KT 04/02 A3032 RMK A01 T00440019  RH  084%=      5-min Rain = 0
KMC4 090343Z 01002KT 04/02 A3032 RMK A01 T00430019  RH  084%=      5-min Rain = 0
KMC4 090344Z 01002KT 04/02 A3032 RMK A01 T00430019  RH  084%=      5-min Rain = 0
KMC4 090345Z 01002KT 04/02 A3032 RMK A01 T00430019  RH  084%=      5-min Rain = 0
KMC4 090346Z 01002KT 04/02 A3032 RMK A01 T00420018  RH  084%=      5-min Rain = 0
KMC4 090347Z 01002KT 04/02 A3032 RMK A01 T00420018  RH  085%=      5-min Rain = 0
KMC4 090348Z 02002KT 04/02 A3032 RMK A01 T00420018  RH  085%=      5-min Rain = 0
KMC4 090349Z 02002KT 04/02 A3032 RMK A01 T00420018  RH  085%=      5-min Rain = 0
KMC4 090350Z 02002KT 04/02 A3032 RMK A01 T00410018  RH  085%=      5-min Rain = 0
KMC4 090351Z 02002KT 04/02 A3032 RMK A01 T00400018  RH  085%=      5-min Rain = 0
KMC4 090352Z 02002KT 04/02 A3032 RMK A01 T00400018  RH  086%=      5-min Rain = 0
KMC4 090353Z 02003KT 04/02 A3032 RMK A01 T00390018  RH  086%=      5-min Rain = 0
KMC4 090354Z 02003KT 04/02 A3032 RMK A01 T00390018  RH  086%=      5-min Rain = 0
KMC4 090355Z 02003KT 04/02 A3032 RMK A01 T00390018  RH  086%=      5-min Rain = 0
KMC4 090356Z 02003KT 04/02 A3032 RMK A01 T00390018  RH  086%=      5-min Rain = 0
KMC4 090357Z 02003KT 04/02 A3032 RMK A01 T00390018  RH  086%=      5-min Rain = 0
KMC4 090358Z 02003KT 04/02 A3032 RMK A01 T00380018  RH  086%=      5-min Rain = 0
KMC4 090359Z 02003KT 04/02 A3032 RMK A01 T00380018  RH  087%=      5-min Rain = 0
KMC4 090400Z 02003KT 04/02 A3032 RMK A01 T00380018  RH  087%=      5-min Rain = 0
KMC4 090401Z 02003KT 04/02 A3032 RMK A01 T00380017  RH  086%=      5-min Rain = 0
KMC4 090402Z 02003KT 04/02 A3032 RMK A01 T00380017  RH  086%=      5-min Rain = 0
KMC4 090403Z 02003KT 04/02 A3032 RMK A01 T00380017  RH  086%=      5-min Rain = 0
KMC4 090404Z 02002KT 04/02 A3032 RMK A01 T00370017  RH  087%=      5-min Rain = 0
KMC4 090405Z 02002KT 04/02 A3032 RMK A01 T00370017  RH  087%=      5-min Rain = 0
KMC4 090406Z 02003KT 04/02 A3032 RMK A01 T00370017  RH  087%=      5-min Rain = 0
KMC4 090407Z 02002KT 04/02 A3032 RMK A01 T00360017  RH  087%=      5-min Rain = 0
KMC4 090408Z 02002KT 04/02 A3032 RMK A01 T00360016  RH  087%=      5-min Rain = 0
KMC4 090409Z 02002KT 04/02 A3032 RMK A01 T00350016  RH  087%=      5-min Rain = 0
KMC4 090410Z 02002KT 04/02 A3032 RMK A01 T00350016  RH  087%=      5-min Rain = 0
KMC4 090411Z 02002KT 04/02 A3032 RMK A01 T00350016  RH  087%=      5-min Rain = 0
KMC4 090412Z 02002KT 04/02 A3032 RMK A01 T00350016  RH  087%=      5-min Rain = 0
KMC4 090413Z 02002KT 04/02 A3032 RMK A01 T00350015  RH  087%=      5-min Rain = 0
KMC4 090414Z 02002KT 04/02 A3032 RMK A01 T00350015  RH  086%=      5-min Rain = 0
KMC4 090415Z 01002KT 04/02 A3032 RMK A01 T00360015  RH  086%=      5-min Rain = 0
KMC4 090416Z 01000KT 04/02 A3032 RMK A01 T00360015  RH  086%=      5-min Rain = 0
KMC4 090417Z 25000KT 03/01 A3032 RMK A01 T00330012  RH  086%=      5-min Rain = 0
KMC4 090418Z 23000KT 03/01 A3032 RMK A01 T00300010  RH  087%=      5-min Rain = 0
KMC4 090419Z 00000KT 03/01 A3032 RMK A01 T00280010  RH  088%=      5-min Rain = 0
KMC4 090420Z 00000KT 03/01 A3032 RMK A01 T00260010  RH  089%=      5-min Rain = 0
KMC4 090421Z 00000KT 03/01 A3032 RMK A01 T00250010  RH  090%=      5-min Rain = 0
KMC4 090422Z 00000KT 02/01 A3032 RMK A01 T00240010  RH  090%=      5-min Rain = 0
KMC4 090423Z 00000KT 02/01 A3032 RMK A01 T00240010  RH  091%=      5-min Rain = 0
KMC4 090424Z 23000KT 02/01 A3032 RMK A01 T00230010  RH  091%=      5-min Rain = 0
KMC4 090425Z 22000KT 02/01 A3032 RMK A01 T00230011  RH  092%=      5-min Rain = 0
KMC4 090426Z 00000KT 02/01 A3032 RMK A01 T00230011  RH  092%=      5-min Rain = 0
KMC4 090427Z 00000KT 02/01 A3032 RMK A01 T00230011  RH  092%=      5-min Rain = 0
KMC4 090428Z 00000KT 02/01 A3033 RMK A01 T00230012  RH  092%=      5-min Rain = 0
KMC4 090429Z 00000KT 02/01 A3033 RMK A01 T00220012  RH  093%=      5-min Rain = 0
KMC4 090430Z 00000KT 02/01 A3033 RMK A01 T00220012  RH  093%=      5-min Rain = 0
KMC4 090431Z 00000KT 02/01 A3033 RMK A01 T00220012  RH  093%=      5-min Rain = 0
KMC4 090432Z 00000KT 02/01 A3033 RMK A01 T00220012  RH  093%=      5-min Rain = 0
KMC4 090433Z 00000KT 02/01 A3033 RMK A01 T00220012  RH  093%=      5-min Rain = 0
KMC4 090434Z 00000KT 02/01 A3033 RMK A01 T00230013  RH  093%=      5-min Rain = 0
KMC4 090435Z 28000KT 02/02 A3033 RMK A01 T00240015  RH  093%=      5-min Rain = 0
KMC4 090436Z 25000KT 03/02 A3033 RMK A01 T00250016  RH  093%=      5-min Rain = 0
KMC4 090437Z 25000KT 03/02 A3033 RMK A01 T00260015  RH  093%=      5-min Rain = 0
KMC4 090438Z 25001KT 03/02 A3033 RMK A01 T00260015  RH  092%=      5-min Rain = 0
KMC4 090439Z 24001KT 03/02 A3033 RMK A01 T00270015  RH  092%=      5-min Rain = 0
KMC4 090440Z 22001KT 03/01 A3033 RMK A01 T00260014  RH  092%=      5-min Rain = 0
KMC4 090441Z 22001KT 03/01 A3033 RMK A01 T00270014  RH  091%=      5-min Rain = 0
KMC4 090442Z 22001KT 03/01 A3033 RMK A01 T00260013  RH  091%=      5-min Rain = 0
KMC4 090443Z 23000KT 03/01 A3033 RMK A01 T00250011  RH  091%=      5-min Rain = 0
KMC4 090444Z 00000KT 02/01 A3033 RMK A01 T00240010  RH  091%=      5-min Rain = 0
KMC4 090445Z 23000KT 02/01 A3033 RMK A01 T00220009  RH  091%=      5-min Rain = 0
KMC4 090446Z 23001KT 02/01 A3033 RMK A01 T00210008  RH  091%=      5-min Rain = 0
KMC4 090447Z 23001KT 02/01 A3033 RMK A01 T00200007  RH  091%=      5-min Rain = 0
KMC4 090448Z 24001KT 02/01 A3033 RMK A01 T00200007  RH  091%=      5-min Rain = 0
KMC4 090449Z 25001KT 02/01 A3033 RMK A01 T00200008  RH  092%=      5-min Rain = 0
KMC4 090450Z 25001KT 02/01 A3033 RMK A01 T00190008  RH  092%=      5-min Rain = 0
KMC4 090451Z 25001KT 02/01 A3033 RMK A01 T00190008  RH  092%=      5-min Rain = 0
KMC4 090452Z 25001KT 02/01 A3033 RMK A01 T00190008  RH  093%=      5-min Rain = 0
KMC4 090453Z 25001KT 02/01 A3033 RMK A01 T00190009  RH  093%=      5-min Rain = 0
KMC4 090454Z 25001KT 02/01 A3033 RMK A01 T00190009  RH  093%=      5-min Rain = 0
KMC4 090455Z 25000KT 02/01 A3033 RMK A01 T00190009  RH  093%=      5-min Rain = 0
KMC4 090456Z 00000KT 02/01 A3033 RMK A01 T00180009  RH  094%=      5-min Rain = 0
KMC4 090457Z 25000KT 02/01 A3033 RMK A01 T00180010  RH  094%=      5-min Rain = 0
KMC4 090458Z 26000KT 02/01 A3033 RMK A01 T00190011  RH  094%=      5-min Rain = 0
KMC4 090459Z 29000KT 02/01 A3033 RMK A01 T00190011  RH  094%=      5-min Rain = 0
KMC4 090500Z 29000KT 02/01 A3033 RMK A01 T00190011  RH  094%=      5-min Rain = 0
KMC4 090501Z 29001KT 02/01 A3033 RMK A01 T00190011  RH  095%=      5-min Rain = 0
KMC4 090502Z 29001KT 02/01 A3033 RMK A01 T00200012  RH  095%=      5-min Rain = 0
KMC4 090503Z 30001KT 02/01 A3033 RMK A01 T00200012  RH  095%=      5-min Rain = 0
KMC4 090504Z 31001KT 02/01 A3033 RMK A01 T00200012  RH  095%=      5-min Rain = 0
KMC4 090505Z 32001KT 02/01 A3034 RMK A01 T00200012  RH  094%=      5-min Rain = 0
KMC4 090506Z 32001KT 02/01 A3034 RMK A01 T00200012  RH  094%=      5-min Rain = 0
KMC4 090507Z 32001KT 02/01 A3034 RMK A01 T00200012  RH  094%=      5-min Rain = 0
KMC4 090508Z 31001KT 02/01 A3034 RMK A01 T00210012  RH  094%=      5-min Rain = 0
KMC4 090509Z 31001KT 02/01 A3034 RMK A01 T00210013  RH  094%=      5-min Rain = 0
KMC4 090510Z 31001KT 02/01 A3034 RMK A01 T00210013  RH  094%=      5-min Rain = 0
KMC4 090511Z 31001KT 02/01 A3034 RMK A01 T00210013  RH  094%=      5-min Rain = 0
KMC4 090512Z 31001KT 02/01 A3034 RMK A01 T00210013  RH  094%=      5-min Rain = 0
KMC4 090513Z 31001KT 02/01 A3034 RMK A01 T00220013  RH  094%=      5-min Rain = 0
KMC4 090514Z 31001KT 02/01 A3033 RMK A01 T00210013  RH  094%=      5-min Rain = 0
KMC4 090515Z 31000KT 02/01 A3033 RMK A01 T00220013  RH  094%=      5-min Rain = 0
KMC4 090516Z 31001KT 02/01 A3033 RMK A01 T00220014  RH  094%=      5-min Rain = 0
KMC4 090517Z 31000KT 02/01 A3033 RMK A01 T00230014  RH  094%=      5-min Rain = 0
KMC4 090518Z 00000KT 02/02 A3033 RMK A01 T00240015  RH  094%=      5-min Rain = 0
KMC4 090519Z 31000KT 02/02 A3033 RMK A01 T00240015  RH  094%=      5-min Rain = 0
KMC4 090520Z 31000KT 02/02 A3033 RMK A01 T00240015  RH  094%=      5-min Rain = 0
KMC4 090521Z 31000KT 02/02 A3033 RMK A01 T00240015  RH  093%=      5-min Rain = 0
KMC4 090522Z 31000KT 02/01 A3033 RMK A01 T00240014  RH  093%=      5-min Rain = 0
KMC4 090523Z 31000KT 02/01 A3033 RMK A01 T00230013  RH  093%=      5-min Rain = 0
KMC4 090524Z 31000KT 02/01 A3033 RMK A01 T00230013  RH  093%=      5-min Rain = 0
KMC4 090525Z 31000KT 02/01 A3033 RMK A01 T00230012  RH  093%=      5-min Rain = 0
KMC4 090526Z 00000KT 02/01 A3033 RMK A01 T00220012  RH  093%=      5-min Rain = 0
KMC4 090527Z 00000KT 02/01 A3033 RMK A01 T00210010  RH  093%=      5-min Rain = 0
KMC4 090528Z 00000KT 02/01 A3033 RMK A01 T00200009  RH  093%=      5-min Rain = 0
KMC4 090529Z 00000KT 02/01 A3033 RMK A01 T00200009  RH  093%=      5-min Rain = 0
KMC4 090530Z 00000KT 02/01 A3033 RMK A01 T00190009  RH  093%=      5-min Rain = 0
KMC4 090531Z 00000KT 02/01 A3033 RMK A01 T00190008  RH  093%=      5-min Rain = 0
KMC4 090532Z 00000KT 02/01 A3033 RMK A01 T00180008  RH  093%=      5-min Rain = 0
KMC4 090533Z 00000KT 02/01 A3033 RMK A01 T00180008  RH  093%=      5-min Rain = 0
KMC4 090534Z 00000KT 02/01 A3033 RMK A01 T00170008  RH  094%=      5-min Rain = 0
KMC4 090535Z 31000KT 02/01 A3033 RMK A01 T00170009  RH  094%=      5-min Rain = 0
KMC4 090536Z 00000KT 02/01 A3033 RMK A01 T00170009  RH  094%=      5-min Rain = 0
KMC4 090537Z 31000KT 02/01 A3033 RMK A01 T00170009  RH  094%=      5-min Rain = 0
KMC4 090538Z 31001KT 02/01 A3033 RMK A01 T00170010  RH  095%=      5-min Rain = 0
KMC4 090539Z 36002KT 02/01 A3033 RMK A01 T00170010  RH  095%=      5-min Rain = 0
KMC4 090540Z 00003KT 02/01 A3033 RMK A01 T00170009  RH  095%=      5-min Rain = 0
KMC4 090541Z 35003KT 02/01 A3033 RMK A01 T00160009  RH  095%=      5-min Rain = 0
KMC4 090542Z 36002KT 02/01 A3033 RMK A01 T00170009  RH  095%=      5-min Rain = 0
KMC4 090543Z 00002KT 02/01 A3033 RMK A01 T00160008  RH  095%=      5-min Rain = 0
KMC4 090544Z 01002KT 02/01 A3033 RMK A01 T00160008  RH  095%=      5-min Rain = 0
KMC4 090545Z 01002KT 02/01 A3033 RMK A01 T00160009  RH  095%=      5-min Rain = 0
KMC4 090546Z 01002KT 02/01 A3033 RMK A01 T00160009  RH  095%=      5-min Rain = 0
KMC4 090547Z 01002KT 02/01 A3033 RMK A01 T00160008  RH  095%=      5-min Rain = 0
KMC4 090548Z 01001KT 02/01 A3033 RMK A01 T00160008  RH  095%=      5-min Rain = 0
KMC4 090549Z 01001KT 02/01 A3033 RMK A01 T00160008  RH  095%=      5-min Rain = 0
KMC4 090550Z 01001KT 02/01 A3033 RMK A01 T00160008  RH  095%=      5-min Rain = 0
KMC4 090551Z 01002KT 02/01 A3033 RMK A01 T00160008  RH  095%=      5-min Rain = 0
KMC4 090552Z 01002KT 02/01 A3033 RMK A01 T00150008  RH  095%=      5-min Rain = 0
KMC4 090553Z 01002KT 02/01 A3033 RMK A01 T00160008  RH  095%=      5-min Rain = 0
KMC4 090554Z 01002KT 02/01 A3033 RMK A01 T00150008  RH  095%=      5-min Rain = 0
KMC4 090555Z 01001KT 02/01 A3033 RMK A01 T00160008  RH  095%=      5-min Rain = 0
KMC4 090556Z 00001KT 02/01 A3033 RMK A01 T00160008  RH  095%=      5-min Rain = 0
KMC4 090557Z 00001KT 02/01 A3033 RMK A01 T00160008  RH  094%=      5-min Rain = 0
KMC4 090558Z 00001KT 02/01 A3033 RMK A01 T00170008  RH  094%=      5-min Rain = 0
KMC4 090559Z 00001KT 02/01 A3033 RMK A01 T00170008  RH  094%=      5-min Rain = 0

Page generated in 0.0777 seconds.